Observation data for Menard on 12/10/2018      Previous  Date       Current Mesonet Observations  Soil Data  Daily Summary Page  Observations in Plain Language
KMD1 100600Z 29002KT M03/M03 A3041 RMK A01 T10251028  RH  098%=      5-min Rain = 0
KMD1 100601Z 29002KT M03/M03 A3041 RMK A01 T10251028  RH  098%=      5-min Rain = 0
KMD1 100602Z 29002KT M03/M03 A3041 RMK A01 T10251027  RH  098%=      5-min Rain = 0
KMD1 100603Z 29001KT M02/M03 A304 RMK A01 T10241026  RH  098%=      5-min Rain = 0
KMD1 100604Z 28001KT M02/M03 A304 RMK A01 T10241026  RH  098%=      5-min Rain = 0
KMD1 100605Z 28001KT M02/M03 A304 RMK A01 T10241026  RH  098%=      5-min Rain = 0
KMD1 100606Z 26001KT M02/M03 A304 RMK A01 T10241026  RH  098%=      5-min Rain = 0
KMD1 100607Z 25001KT M02/M03 A304 RMK A01 T10241026  RH  098%=      5-min Rain = 0
KMD1 100608Z 26001KT M02/M03 A304 RMK A01 T10241027  RH  098%=      5-min Rain = 0
KMD1 100609Z 25002KT M02/M03 A304 RMK A01 T10241027  RH  098%=      5-min Rain = 0
KMD1 100610Z 25002KT M02/M03 A304 RMK A01 T10241027  RH  098%=      5-min Rain = 0
KMD1 100611Z 25001KT M02/M03 A304 RMK A01 T10241027  RH  098%=      5-min Rain = 0
KMD1 100612Z 27001KT M03/M03 A304 RMK A01 T10251027  RH  098%=      5-min Rain = 0
KMD1 100613Z 28001KT M03/M03 A304 RMK A01 T10251027  RH  098%=      5-min Rain = 0
KMD1 100614Z 27001KT M02/M03 A304 RMK A01 T10241027  RH  098%=      5-min Rain = 0
KMD1 100615Z 26001KT M03/M03 A304 RMK A01 T10251027  RH  098%=      5-min Rain = 0
KMD1 100616Z 26000KT M03/M03 A304 RMK A01 T10251027  RH  098%=      5-min Rain = 0
KMD1 100617Z 26001KT M03/M03 A304 RMK A01 T10251028  RH  098%=      5-min Rain = 0
KMD1 100618Z 25001KT M03/M03 A304 RMK A01 T10251028  RH  098%=      5-min Rain = 0
KMD1 100619Z 24001KT M03/M03 A304 RMK A01 T10251028  RH  098%=      5-min Rain = 0
KMD1 100620Z 24000KT M03/M03 A304 RMK A01 T10251028  RH  098%=      5-min Rain = 0
KMD1 100621Z 23001KT M03/M03 A304 RMK A01 T10251028  RH  098%=      5-min Rain = 0
KMD1 100622Z 23001KT M03/M03 A304 RMK A01 T10251028  RH  098%=      5-min Rain = 0
KMD1 100623Z 23001KT M03/M03 A304 RMK A01 T10251028  RH  098%=      5-min Rain = 0
KMD1 100624Z 22002KT M03/M03 A304 RMK A01 T10251028  RH  098%=      5-min Rain = 0
KMD1 100625Z 22001KT M03/M03 A304 RMK A01 T10261028  RH  098%=      5-min Rain = 0
KMD1 100626Z 23001KT M03/M03 A304 RMK A01 T10261029  RH  098%=      5-min Rain = 0
KMD1 100627Z 24001KT M03/M03 A304 RMK A01 T10261029  RH  098%=      5-min Rain = 0
KMD1 100628Z 24001KT M03/M03 A304 RMK A01 T10261028  RH  098%=      5-min Rain = 0
KMD1 100629Z 25001KT M03/M03 A304 RMK A01 T10261029  RH  098%=      5-min Rain = 0
KMD1 100630Z 24002KT M03/M03 A304 RMK A01 T10261028  RH  098%=      5-min Rain = 0
KMD1 100631Z 24002KT M03/M03 A304 RMK A01 T10271029  RH  098%=      5-min Rain = 0
KMD1 100632Z 24002KT M03/M03 A304 RMK A01 T10261028  RH  098%=      5-min Rain = 0
KMD1 100633Z 24002KT M03/M03 A304 RMK A01 T10261028  RH  098%=      5-min Rain = 0
KMD1 100634Z 24002KT M03/M03 A304 RMK A01 T10261028  RH  099%=      5-min Rain = 0
KMD1 100635Z 24002KT M03/M03 A304 RMK A01 T10261028  RH  099%=      5-min Rain = 0
KMD1 100636Z 25003KT M03/M03 A304 RMK A01 T10261028  RH  099%=      5-min Rain = 0
KMD1 100637Z 24003KT M03/M03 A304 RMK A01 T10261028  RH  099%=      5-min Rain = 0
KMD1 100638Z 24003KT M03/M03 A304 RMK A01 T10261028  RH  099%=      5-min Rain = 0
KMD1 100639Z 24003KT M03/M03 A304 RMK A01 T10261028  RH  099%=      5-min Rain = 0
KMD1 100640Z 24003KT M03/M03 A304 RMK A01 T10261028  RH  099%=      5-min Rain = 0
KMD1 100641Z 25003KT M03/M03 A304 RMK A01 T10271029  RH  098%=      5-min Rain = 0
KMD1 100642Z 25003KT M03/M03 A304 RMK A01 T10271029  RH  099%=      5-min Rain = 0
KMD1 100643Z 25003KT M03/M03 A304 RMK A01 T10271029  RH  099%=      5-min Rain = 0
KMD1 100644Z 25003KT M03/M03 A304 RMK A01 T10271029  RH  099%=      5-min Rain = 0
KMD1 100645Z 25003KT M03/M03 A304 RMK A01 T10271029  RH  099%=      5-min Rain = 0
KMD1 100646Z 25003KT M03/M03 A304 RMK A01 T10271029  RH  099%=      5-min Rain = 0
KMD1 100647Z 25003KT M03/M03 A304 RMK A01 T10271029  RH  099%=      5-min Rain = 0
KMD1 100648Z 25004KT M03/M03 A304 RMK A01 T10271029  RH  099%=      5-min Rain = 0
KMD1 100649Z 25003KT M03/M03 A304 RMK A01 T10271029  RH  099%=      5-min Rain = 0
KMD1 100650Z 25003KT M03/M03 A304 RMK A01 T10271029  RH  099%=      5-min Rain = 0
KMD1 100651Z 25004KT M03/M03 A304 RMK A01 T10281029  RH  099%=      5-min Rain = 0
KMD1 100652Z 25003KT M03/M03 A304 RMK A01 T10271029  RH  099%=      5-min Rain = 0
KMD1 100653Z 26003KT M03/M03 A304 RMK A01 T10281030  RH  099%=      5-min Rain = 0
KMD1 100654Z 27003KT M03/M03 A304 RMK A01 T10281029  RH  099%=      5-min Rain = 0
KMD1 100655Z 27003KT M03/M03 A304 RMK A01 T10281029  RH  099%=      5-min Rain = 0
KMD1 100656Z 27003KT M03/M03 A304 RMK A01 T10271029  RH  099%=      5-min Rain = 0
KMD1 100657Z 27003KT M03/M03 A3039 RMK A01 T10281029  RH  099%=      5-min Rain = 0
KMD1 100658Z 27003KT M03/M03 A3039 RMK A01 T10281030  RH  099%=      5-min Rain = 0
KMD1 100659Z 28003KT M03/M03 A3039 RMK A01 T10281029  RH  099%=      5-min Rain = 0
KMD1 100700Z 28003KT M03/M03 A3039 RMK A01 T10271029  RH  099%=      5-min Rain = 0
KMD1 100701Z 28003KT M03/M03 A3039 RMK A01 T10271029  RH  099%=      5-min Rain = 0
KMD1 100702Z 28003KT M03/M03 A3039 RMK A01 T10281029  RH  099%=      5-min Rain = 0
KMD1 100703Z 28003KT M03/M03 A3039 RMK A01 T10281030  RH  099%=      5-min Rain = 0
KMD1 100704Z 28003KT M03/M03 A3039 RMK A01 T10281030  RH  099%=      5-min Rain = 0
KMD1 100705Z 28003KT M03/M03 A3039 RMK A01 T10281030  RH  099%=      5-min Rain = 0
KMD1 100706Z 27003KT M03/M03 A3039 RMK A01 T10291031  RH  099%=      5-min Rain = 0
KMD1 100707Z 27003KT M03/M03 A3039 RMK A01 T10291031  RH  099%=      5-min Rain = 0
KMD1 100708Z 27004KT M03/M03 A3039 RMK A01 T10281030  RH  099%=      5-min Rain = 0
KMD1 100709Z 26004KT M03/M03 A3039 RMK A01 T10271029  RH  099%=      5-min Rain = 0
KMD1 100710Z 27004KT M03/M03 A3039 RMK A01 T10271028  RH  099%=      5-min Rain = 0
KMD1 100711Z 27004KT M03/M03 A3039 RMK A01 T10261028  RH  099%=      5-min Rain = 0
KMD1 100712Z 27004KT M03/M03 A3039 RMK A01 T10261027  RH  099%=      5-min Rain = 0
KMD1 100713Z 27004KT M03/M03 A3039 RMK A01 T10251026  RH  099%=      5-min Rain = 0
KMD1 100714Z 27004KT M03/M03 A3039 RMK A01 T10251026  RH  099%=      5-min Rain = 0
KMD1 100715Z 27003KT M03/M03 A3039 RMK A01 T10251027  RH  099%=      5-min Rain = 0
KMD1 100716Z 27004KT M03/M03 A3039 RMK A01 T10251027  RH  099%=      5-min Rain = 0
KMD1 100717Z 26003KT M03/M03 A3039 RMK A01 T10251027  RH  099%=      5-min Rain = 0
KMD1 100718Z 26003KT M03/M03 A3039 RMK A01 T10251027  RH  099%=      5-min Rain = 0
KMD1 100719Z 27002KT M03/M03 A3039 RMK A01 T10251027  RH  099%=      5-min Rain = 0
KMD1 100720Z 27003KT M03/M03 A3039 RMK A01 T10251028  RH  099%=      5-min Rain = 0
KMD1 100721Z 26003KT M03/M03 A3039 RMK A01 T10251028  RH  099%=      5-min Rain = 0
KMD1 100722Z 27003KT M03/M03 A3039 RMK A01 T10261028  RH  098%=      5-min Rain = 0
KMD1 100723Z 27003KT M03/M03 A3039 RMK A01 T10261028  RH  098%=      5-min Rain = 0
KMD1 100724Z 26003KT M03/M03 A3039 RMK A01 T10261029  RH  098%=      5-min Rain = 0
KMD1 100725Z 26003KT M03/M03 A3039 RMK A01 T10271030  RH  098%=      5-min Rain = 0
KMD1 100726Z 25003KT M03/M03 A3039 RMK A01 T10271029  RH  098%=      5-min Rain = 0
KMD1 100727Z 24002KT M03/M03 A3039 RMK A01 T10271030  RH  098%=      5-min Rain = 0
KMD1 100728Z 25002KT M03/M03 A3039 RMK A01 T10271030  RH  098%=      5-min Rain = 0
KMD1 100729Z 25002KT M03/M03 A3039 RMK A01 T10281030  RH  098%=      5-min Rain = 0
KMD1 100730Z 25002KT M03/M03 A3039 RMK A01 T10281030  RH  098%=      5-min Rain = 0
KMD1 100731Z 24002KT M03/M03 A3039 RMK A01 T10281031  RH  098%=      5-min Rain = 0
KMD1 100732Z 24002KT M03/M03 A3039 RMK A01 T10291031  RH  098%=      5-min Rain = 0
KMD1 100733Z 24003KT M03/M03 A3039 RMK A01 T10291032  RH  098%=      5-min Rain = 0
KMD1 100734Z 25003KT M03/M03 A3039 RMK A01 T10301033  RH  098%=      5-min Rain = 0
KMD1 100735Z 25003KT M03/M03 A3039 RMK A01 T10301033  RH  098%=      5-min Rain = 0
KMD1 100736Z 24003KT M03/M03 A3038 RMK A01 T10311034  RH  098%=      5-min Rain = 0
KMD1 100737Z 25003KT M03/M03 A3038 RMK A01 T10311034  RH  098%=      5-min Rain = 0
KMD1 100738Z 25003KT M03/M03 A3039 RMK A01 T10311034  RH  098%=      5-min Rain = 0
KMD1 100739Z 25003KT M03/M03 A3039 RMK A01 T10311034  RH  098%=      5-min Rain = 0
KMD1 100740Z 26003KT M03/M03 A3039 RMK A01 T10311034  RH  098%=      5-min Rain = 0
KMD1 100741Z 26002KT M03/M03 A3039 RMK A01 T10321034  RH  098%=      5-min Rain = 0
KMD1 100742Z 26002KT M03/M03 A3039 RMK A01 T10311034  RH  098%=      5-min Rain = 0
KMD1 100743Z 26002KT M03/M03 A3039 RMK A01 T10311034  RH  098%=      5-min Rain = 0
KMD1 100744Z 26002KT M03/M03 A3039 RMK A01 T10311034  RH  098%=      5-min Rain = 0
KMD1 100745Z 26002KT M03/M03 A3039 RMK A01 T10321034  RH  098%=      5-min Rain = 0
KMD1 100746Z 27001KT M03/M03 A3039 RMK A01 T10311034  RH  098%=      5-min Rain = 0
KMD1 100747Z 28002KT M03/M03 A3039 RMK A01 T10311034  RH  098%=      5-min Rain = 0
KMD1 100748Z 28001KT M03/M03 A3039 RMK A01 T10311034  RH  098%=      5-min Rain = 0
KMD1 100749Z 27002KT M03/M04 A3039 RMK A01 T10321035  RH  098%=      5-min Rain = 0
KMD1 100750Z 28002KT M03/M04 A3039 RMK A01 T10331036  RH  098%=      5-min Rain = 0
KMD1 100751Z 27002KT M03/M04 A3039 RMK A01 T10331036  RH  098%=      5-min Rain = 0
KMD1 100752Z 28003KT M03/M04 A3039 RMK A01 T10341037  RH  098%=      5-min Rain = 0
KMD1 100753Z 28003KT M03/M04 A3039 RMK A01 T10341037  RH  098%=      5-min Rain = 0
KMD1 100754Z 28003KT M03/M04 A3039 RMK A01 T10341037  RH  098%=      5-min Rain = 0
KMD1 100755Z 28003KT M03/M04 A3039 RMK A01 T10341037  RH  098%=      5-min Rain = 0
KMD1 100756Z 28003KT M03/M04 A3039 RMK A01 T10341036  RH  098%=      5-min Rain = 0
KMD1 100757Z 28002KT M03/M04 A3039 RMK A01 T10341036  RH  098%=      5-min Rain = 0
KMD1 100758Z 28002KT M03/M04 A3039 RMK A01 T10341036  RH  098%=      5-min Rain = 0
KMD1 100759Z 28002KT M03/M04 A3039 RMK A01 T10341037  RH  098%=      5-min Rain = 0
KMD1 100800Z 28002KT M03/M04 A3039 RMK A01 T10341037  RH  098%=      5-min Rain = 0
KMD1 100801Z 28002KT M04/M04 A3039 RMK A01 T10351037  RH  098%=      5-min Rain = 0
KMD1 100802Z 28002KT M04/M04 A3039 RMK A01 T10351037  RH  098%=      5-min Rain = 0
KMD1 100803Z 28002KT M04/M04 A3039 RMK A01 T10351037  RH  098%=      5-min Rain = 0
KMD1 100804Z 28002KT M04/M04 A3039 RMK A01 T10351038  RH  098%=      5-min Rain = 0
KMD1 100805Z 28002KT M04/M04 A3039 RMK A01 T10351038  RH  098%=      5-min Rain = 0
KMD1 100806Z 28002KT M04/M04 A3039 RMK A01 T10351038  RH  098%=      5-min Rain = 0
KMD1 100807Z 27002KT M04/M04 A3039 RMK A01 T10351038  RH  098%=      5-min Rain = 0
KMD1 100808Z 27002KT M04/M04 A3039 RMK A01 T10351037  RH  098%=      5-min Rain = 0
KMD1 100809Z 27002KT M03/M04 A3039 RMK A01 T10341037  RH  098%=      5-min Rain = 0
KMD1 100810Z 27002KT M03/M04 A3039 RMK A01 T10341036  RH  098%=      5-min Rain = 0
KMD1 100811Z 27002KT M03/M04 A3039 RMK A01 T10331035  RH  098%=      5-min Rain = 0
KMD1 100812Z 27002KT M03/M04 A3039 RMK A01 T10331035  RH  098%=      5-min Rain = 0
KMD1 100813Z 27002KT M03/M03 A3038 RMK A01 T10321034  RH  098%=      5-min Rain = 0
KMD1 100814Z 27002KT M03/M04 A3038 RMK A01 T10321035  RH  098%=      5-min Rain = 0
KMD1 100815Z 27002KT M03/M03 A3038 RMK A01 T10321034  RH  098%=      5-min Rain = 0
KMD1 100816Z 27002KT M03/M03 A3039 RMK A01 T10321034  RH  098%=      5-min Rain = 0
KMD1 100817Z 27002KT M03/M03 A3039 RMK A01 T10321034  RH  098%=      5-min Rain = 0
KMD1 100818Z 26002KT M03/M03 A3039 RMK A01 T10311034  RH  098%=      5-min Rain = 0
KMD1 100819Z 26002KT M03/M03 A3039 RMK A01 T10311033  RH  098%=      5-min Rain = 0
KMD1 100820Z 26001KT M03/M03 A3039 RMK A01 T10321034  RH  098%=      5-min Rain = 0
KMD1 100821Z 26002KT M03/M03 A3039 RMK A01 T10321034  RH  098%=      5-min Rain = 0
KMD1 100822Z 27002KT M03/M03 A3039 RMK A01 T10321034  RH  098%=      5-min Rain = 0
KMD1 100823Z 27002KT M03/M03 A3039 RMK A01 T10321034  RH  098%=      5-min Rain = 0
KMD1 100824Z 27001KT M03/M03 A3039 RMK A01 T10321034  RH  098%=      5-min Rain = 0
KMD1 100825Z 27001KT M03/M04 A3039 RMK A01 T10331035  RH  098%=      5-min Rain = 0
KMD1 100826Z 27001KT M03/M04 A3039 RMK A01 T10331036  RH  098%=      5-min Rain = 0
KMD1 100827Z 27001KT M03/M04 A3039 RMK A01 T10341037  RH  098%=      5-min Rain = 0
KMD1 100828Z 25001KT M04/M04 A3039 RMK A01 T10351038  RH  098%=      5-min Rain = 0
KMD1 100829Z 24001KT M04/M04 A3039 RMK A01 T10351038  RH  098%=      5-min Rain = 0
KMD1 100830Z 24001KT M04/M04 A3039 RMK A01 T10351038  RH  098%=      5-min Rain = 0
KMD1 100831Z 24001KT M04/M04 A3039 RMK A01 T10351038  RH  098%=      5-min Rain = 0
KMD1 100832Z 24001KT M04/M04 A3039 RMK A01 T10351038  RH  098%=      5-min Rain = 0
KMD1 100833Z 24001KT M04/M04 A3039 RMK A01 T10351038  RH  098%=      5-min Rain = 0
KMD1 100834Z 24002KT M04/M04 A3039 RMK A01 T10351038  RH  098%=      5-min Rain = 0
KMD1 100835Z 24002KT M04/M04 A3039 RMK A01 T10351038  RH  098%=      5-min Rain = 0
KMD1 100836Z 25002KT M04/M04 A3039 RMK A01 T10351037  RH  098%=      5-min Rain = 0
KMD1 100837Z 25002KT M03/M04 A3039 RMK A01 T10341037  RH  098%=      5-min Rain = 0
KMD1 100838Z 25002KT M03/M04 A3039 RMK A01 T10341037  RH  098%=      5-min Rain = 0
KMD1 100839Z 26002KT M03/M04 A3039 RMK A01 T10341037  RH  098%=      5-min Rain = 0
KMD1 100840Z 26003KT M03/M04 A3039 RMK A01 T10341036  RH  098%=      5-min Rain = 0
KMD1 100841Z 26002KT M03/M04 A3039 RMK A01 T10341037  RH  098%=      5-min Rain = 0
KMD1 100842Z 26003KT M03/M04 A3039 RMK A01 T10341037  RH  098%=      5-min Rain = 0
KMD1 100843Z 26003KT M03/M04 A3038 RMK A01 T10331036  RH  098%=      5-min Rain = 0
KMD1 100844Z 26002KT M03/M04 A3038 RMK A01 T10331036  RH  098%=      5-min Rain = 0
KMD1 100845Z 26002KT M03/M04 A3038 RMK A01 T10341036  RH  098%=      5-min Rain = 0
KMD1 100846Z 26002KT M03/M04 A3038 RMK A01 T10341036  RH  098%=      5-min Rain = 0
KMD1 100847Z 26001KT M03/M04 A3039 RMK A01 T10331036  RH  098%=      5-min Rain = 0
KMD1 100848Z 26002KT M03/M04 A3038 RMK A01 T10341036  RH  098%=      5-min Rain = 0
KMD1 100849Z 26002KT M04/M04 A3038 RMK A01 T10351037  RH  098%=      5-min Rain = 0
KMD1 100850Z 26002KT M04/M04 A3038 RMK A01 T10361039  RH  098%=      5-min Rain = 0
KMD1 100851Z 26002KT M04/M04 A3038 RMK A01 T10371040  RH  098%=      5-min Rain = 0
KMD1 100852Z 26002KT M04/M04 A3038 RMK A01 T10371040  RH  098%=      5-min Rain = 0
KMD1 100853Z 26002KT M04/M04 A3038 RMK A01 T10371040  RH  098%=      5-min Rain = 0
KMD1 100854Z 26002KT M04/M04 A3038 RMK A01 T10371039  RH  098%=      5-min Rain = 0
KMD1 100855Z 26002KT M04/M04 A3038 RMK A01 T10371039  RH  098%=      5-min Rain = 0
KMD1 100856Z 26002KT M04/M04 A3038 RMK A01 T10361039  RH  098%=      5-min Rain = 0
KMD1 100857Z 26002KT M04/M04 A3038 RMK A01 T10371039  RH  098%=      5-min Rain = 0
KMD1 100858Z 26002KT M04/M04 A3038 RMK A01 T10371039  RH  098%=      5-min Rain = 0
KMD1 100859Z 26002KT M04/M04 A3038 RMK A01 T10361039  RH  098%=      5-min Rain = 0
KMD1 100900Z 25002KT M04/M04 A3038 RMK A01 T10371040  RH  098%=      5-min Rain = 0
KMD1 100901Z 25002KT M04/M04 A3038 RMK A01 T10371040  RH  098%=      5-min Rain = 0
KMD1 100902Z 25002KT M04/M04 A3038 RMK A01 T10371039  RH  098%=      5-min Rain = 0
KMD1 100903Z 25002KT M04/M04 A3038 RMK A01 T10371040  RH  098%=      5-min Rain = 0
KMD1 100904Z 24002KT M04/M04 A3038 RMK A01 T10371040  RH  098%=      5-min Rain = 0
KMD1 100905Z 25002KT M04/M04 A3038 RMK A01 T10371039  RH  098%=      5-min Rain = 0
KMD1 100906Z 25003KT M04/M04 A3038 RMK A01 T10361039  RH  098%=      5-min Rain = 0
KMD1 100907Z 26003KT M04/M04 A3038 RMK A01 T10361039  RH  098%=      5-min Rain = 0
KMD1 100908Z 26003KT M04/M04 A3038 RMK A01 T10371039  RH  098%=      5-min Rain = 0
KMD1 100909Z 26003KT M04/M04 A3038 RMK A01 T10361039  RH  098%=      5-min Rain = 0
KMD1 100910Z 26003KT M04/M04 A3038 RMK A01 T10371039  RH  098%=      5-min Rain = 0
KMD1 100911Z 26003KT M04/M04 A3038 RMK A01 T10361039  RH  098%=      5-min Rain = 0
KMD1 100912Z 26002KT M04/M04 A3038 RMK A01 T10371039  RH  098%=      5-min Rain = 0
KMD1 100913Z 26002KT M04/M04 A3038 RMK A01 T10371040  RH  098%=      5-min Rain = 0
KMD1 100914Z 26002KT M04/M04 A3038 RMK A01 T10371040  RH  098%=      5-min Rain = 0
KMD1 100915Z 27002KT M04/M04 A3038 RMK A01 T10371040  RH  098%=      5-min Rain = 0
KMD1 100916Z 27002KT M04/M04 A3038 RMK A01 T10371040  RH  098%=      5-min Rain = 0
KMD1 100917Z 27002KT M04/M04 A3038 RMK A01 T10371039  RH  098%=      5-min Rain = 0
KMD1 100918Z 27003KT M04/M04 A3038 RMK A01 T10371039  RH  098%=      5-min Rain = 0
KMD1 100919Z 27003KT M04/M04 A3038 RMK A01 T10371039  RH  098%=      5-min Rain = 0
KMD1 100920Z 26003KT M04/M04 A3038 RMK A01 T10371040  RH  098%=      5-min Rain = 0
KMD1 100921Z 26003KT M04/M04 A3038 RMK A01 T10371040  RH  098%=      5-min Rain = 0
KMD1 100922Z 26003KT M04/M04 A3038 RMK A01 T10371039  RH  098%=      5-min Rain = 0
KMD1 100923Z 26003KT M04/M04 A3038 RMK A01 T10361039  RH  098%=      5-min Rain = 0
KMD1 100924Z 26003KT M04/M04 A3038 RMK A01 T10361039  RH  098%=      5-min Rain = 0
KMD1 100925Z 25003KT M04/M04 A3038 RMK A01 T10361038  RH  098%=      5-min Rain = 0
KMD1 100926Z 25004KT M04/M04 A3038 RMK A01 T10351038  RH  098%=      5-min Rain = 0
KMD1 100927Z 26003KT M04/M04 A3038 RMK A01 T10351037  RH  098%=      5-min Rain = 0
KMD1 100928Z 26003KT M04/M04 A3038 RMK A01 T10351037  RH  098%=      5-min Rain = 0
KMD1 100929Z 26002KT M04/M04 A3038 RMK A01 T10351037  RH  098%=      5-min Rain = 0
KMD1 100930Z 26002KT M03/M04 A3038 RMK A01 T10341037  RH  098%=      5-min Rain = 0
KMD1 100931Z 26003KT M04/M04 A3038 RMK A01 T10351037  RH  098%=      5-min Rain = 0
KMD1 100932Z 26003KT M04/M04 A3038 RMK A01 T10351038  RH  098%=      5-min Rain = 0
KMD1 100933Z 26003KT M04/M04 A3038 RMK A01 T10351038  RH  098%=      5-min Rain = 0
KMD1 100934Z 25002KT M04/M04 A3038 RMK A01 T10351038  RH  098%=      5-min Rain = 0
KMD1 100935Z 25002KT M04/M04 A3038 RMK A01 T10361039  RH  098%=      5-min Rain = 0
KMD1 100936Z 25002KT M04/M04 A3039 RMK A01 T10361039  RH  098%=      5-min Rain = 0
KMD1 100937Z 25002KT M04/M04 A3039 RMK A01 T10361039  RH  098%=      5-min Rain = 0
KMD1 100938Z 25002KT M04/M04 A3039 RMK A01 T10361039  RH  098%=      5-min Rain = 0
KMD1 100939Z 27001KT M04/M04 A3039 RMK A01 T10351039  RH  098%=      5-min Rain = 0
KMD1 100940Z 25002KT M04/M04 A3039 RMK A01 T10361039  RH  098%=      5-min Rain = 0
KMD1 100941Z 25002KT M04/M04 A3039 RMK A01 T10371040  RH  098%=      5-min Rain = 0
KMD1 100942Z 25002KT M04/M04 A3038 RMK A01 T10381041  RH  097%=      5-min Rain = 0
KMD1 100943Z 25002KT M04/M04 A3038 RMK A01 T10381041  RH  097%=      5-min Rain = 0
KMD1 100944Z 25002KT M04/M04 A3039 RMK A01 T10381041  RH  098%=      5-min Rain = 0
KMD1 100945Z 25002KT M04/M04 A3039 RMK A01 T10381041  RH  098%=      5-min Rain = 0
KMD1 100946Z 25003KT M04/M04 A3039 RMK A01 T10381041  RH  098%=      5-min Rain = 0
KMD1 100947Z 25003KT M04/M04 A3039 RMK A01 T10381041  RH  098%=      5-min Rain = 0
KMD1 100948Z 25003KT M04/M04 A3039 RMK A01 T10371040  RH  098%=      5-min Rain = 0
KMD1 100949Z 24002KT M04/M04 A3039 RMK A01 T10371040  RH  098%=      5-min Rain = 0
KMD1 100950Z 25003KT M04/M04 A3038 RMK A01 T10371041  RH  098%=      5-min Rain = 0
KMD1 100951Z 25003KT M04/M04 A3038 RMK A01 T10371041  RH  098%=      5-min Rain = 0
KMD1 100952Z 26003KT M04/M04 A3038 RMK A01 T10381041  RH  098%=      5-min Rain = 0
KMD1 100953Z 26002KT M04/M04 A3038 RMK A01 T10381041  RH  098%=      5-min Rain = 0
KMD1 100954Z 26002KT M04/M04 A3038 RMK A01 T10381041  RH  098%=      5-min Rain = 0
KMD1 100955Z 25003KT M04/M04 A3038 RMK A01 T10381041  RH  098%=      5-min Rain = 0
KMD1 100956Z 26004KT M04/M04 A3038 RMK A01 T10381041  RH  098%=      5-min Rain = 0
KMD1 100957Z 26004KT M04/M04 A3038 RMK A01 T10371040  RH  098%=      5-min Rain = 0
KMD1 100958Z 26005KT M04/M04 A3038 RMK A01 T10361039  RH  098%=      5-min Rain = 0
KMD1 100959Z 26005KT M04/M04 A3038 RMK A01 T10351038  RH  098%=      5-min Rain = 0
KMD1 101000Z 26005KT M04/M04 A3038 RMK A01 T10351037  RH  098%=      5-min Rain = 0
KMD1 101001Z 25005KT M03/M04 A3038 RMK A01 T10341037  RH  098%=      5-min Rain = 0
KMD1 101002Z 26005KT M03/M04 A3038 RMK A01 T10341037  RH  098%=      5-min Rain = 0
KMD1 101003Z 25004KT M03/M04 A3038 RMK A01 T10341037  RH  098%=      5-min Rain = 0
KMD1 101004Z 25005KT M03/M04 A3038 RMK A01 T10341037  RH  098%=      5-min Rain = 0
KMD1 101005Z 25005KT M03/M04 A3038 RMK A01 T10341037  RH  098%=      5-min Rain = 0
KMD1 101006Z 25005KT M03/M04 A3038 RMK A01 T10331036  RH  098%=      5-min Rain = 0
KMD1 101007Z 25005KT M03/M04 A3038 RMK A01 T10331036  RH  098%=      5-min Rain = 0
KMD1 101008Z 25005KT M03/M04 A3038 RMK A01 T10331037  RH  098%=      5-min Rain = 0
KMD1 101009Z 25005KT M03/M04 A3038 RMK A01 T10341037  RH  098%=      5-min Rain = 0
KMD1 101010Z 25005KT M03/M04 A3038 RMK A01 T10331036  RH  098%=      5-min Rain = 0
KMD1 101011Z 24004KT M03/M04 A3038 RMK A01 T10331036  RH  098%=      5-min Rain = 0
KMD1 101012Z 24003KT M03/M04 A3038 RMK A01 T10331037  RH  098%=      5-min Rain = 0
KMD1 101013Z 24003KT M03/M04 A3038 RMK A01 T10331037  RH  098%=      5-min Rain = 0
KMD1 101014Z 25003KT M03/M04 A3038 RMK A01 T10341038  RH  097%=      5-min Rain = 0
KMD1 101015Z 24004KT M04/M04 A3038 RMK A01 T10351039  RH  097%=      5-min Rain = 0
KMD1 101016Z 24004KT M04/M04 A3038 RMK A01 T10361040  RH  097%=      5-min Rain = 0
KMD1 101017Z 24004KT M04/M04 A3038 RMK A01 T10371040  RH  097%=      5-min Rain = 0
KMD1 101018Z 24004KT M04/M04 A3038 RMK A01 T10371041  RH  097%=      5-min Rain = 0
KMD1 101019Z 24004KT M04/M04 A3038 RMK A01 T10381042  RH  097%=      5-min Rain = 0
KMD1 101020Z 24004KT M04/M04 A3038 RMK A01 T10391043  RH  097%=      5-min Rain = 0
KMD1 101021Z 25004KT M04/M04 A3038 RMK A01 T10391043  RH  097%=      5-min Rain = 0
KMD1 101022Z 24004KT M04/M04 A3038 RMK A01 T10391043  RH  097%=      5-min Rain = 0
KMD1 101023Z 25004KT M04/M04 A3038 RMK A01 T10391043  RH  097%=      5-min Rain = 0
KMD1 101024Z 25005KT M04/M04 A3038 RMK A01 T10391043  RH  097%=      5-min Rain = 0
KMD1 101025Z 25004KT M04/M04 A3038 RMK A01 T10391043  RH  097%=      5-min Rain = 0
KMD1 101026Z 25004KT M04/M04 A3038 RMK A01 T10391043  RH  097%=      5-min Rain = 0
KMD1 101027Z 25004KT M04/M04 A3038 RMK A01 T10391043  RH  097%=      5-min Rain = 0
KMD1 101028Z 25004KT M04/M04 A3038 RMK A01 T10391042  RH  097%=      5-min Rain = 0
KMD1 101029Z 25004KT M04/M04 A3037 RMK A01 T10391042  RH  097%=      5-min Rain = 0
KMD1 101030Z 25004KT M04/M04 A3037 RMK A01 T10391042  RH  097%=      5-min Rain = 0
KMD1 101031Z 25005KT M04/M04 A3037 RMK A01 T10381042  RH  098%=      5-min Rain = 0
KMD1 101032Z 24004KT M04/M04 A3037 RMK A01 T10381041  RH  098%=      5-min Rain = 0
KMD1 101033Z 25005KT M04/M04 A3037 RMK A01 T10381041  RH  098%=      5-min Rain = 0
KMD1 101034Z 25005KT M04/M04 A3037 RMK A01 T10381041  RH  098%=      5-min Rain = 0
KMD1 101035Z 25004KT M04/M04 A3037 RMK A01 T10381041  RH  097%=      5-min Rain = 0
KMD1 101036Z 24004KT M04/M04 A3037 RMK A01 T10381042  RH  097%=      5-min Rain = 0
KMD1 101037Z 24004KT M04/M04 A3037 RMK A01 T10381042  RH  097%=      5-min Rain = 0
KMD1 101038Z 24004KT M04/M04 A3037 RMK A01 T10391043  RH  097%=      5-min Rain = 0
KMD1 101039Z 24004KT M04/M04 A3037 RMK A01 T10391043  RH  097%=      5-min Rain = 0
KMD1 101040Z 25004KT M04/M04 A3037 RMK A01 T10401043  RH  097%=      5-min Rain = 0
KMD1 101041Z 25004KT M04/M04 A3037 RMK A01 T10391043  RH  097%=      5-min Rain = 0
KMD1 101042Z 25004KT M04/M04 A3037 RMK A01 T10391042  RH  097%=      5-min Rain = 0
KMD1 101043Z 25003KT M04/M04 A3037 RMK A01 T10391042  RH  097%=      5-min Rain = 0
KMD1 101044Z 24003KT M04/M04 A3037 RMK A01 T10381042  RH  097%=      5-min Rain = 0
KMD1 101045Z 25004KT M04/M04 A3037 RMK A01 T10381042  RH  097%=      5-min Rain = 0
KMD1 101046Z 25003KT M04/M04 A3037 RMK A01 T10381042  RH  097%=      5-min Rain = 0
KMD1 101047Z 25003KT M04/M04 A3037 RMK A01 T10381041  RH  097%=      5-min Rain = 0
KMD1 101048Z 25004KT M04/M04 A3037 RMK A01 T10371041  RH  098%=      5-min Rain = 0
KMD1 101049Z 25004KT M04/M04 A3037 RMK A01 T10371040  RH  097%=      5-min Rain = 0
KMD1 101050Z 25003KT M04/M04 A3037 RMK A01 T10371041  RH  097%=      5-min Rain = 0
KMD1 101051Z 24004KT M04/M04 A3037 RMK A01 T10371041  RH  097%=      5-min Rain = 0
KMD1 101052Z 24004KT M04/M04 A3037 RMK A01 T10371040  RH  097%=      5-min Rain = 0
KMD1 101053Z 24004KT M04/M04 A3037 RMK A01 T10371040  RH  097%=      5-min Rain = 0
KMD1 101054Z 25004KT M04/M04 A3037 RMK A01 T10371041  RH  097%=      5-min Rain = 0
KMD1 101055Z 25003KT M04/M04 A3037 RMK A01 T10371041  RH  097%=      5-min Rain = 0
KMD1 101056Z 25004KT M04/M04 A3037 RMK A01 T10371040  RH  097%=      5-min Rain = 0
KMD1 101057Z 24004KT M04/M04 A3037 RMK A01 T10371041  RH  097%=      5-min Rain = 0
KMD1 101058Z 25004KT M04/M04 A3037 RMK A01 T10371041  RH  097%=      5-min Rain = 0
KMD1 101059Z 26004KT M04/M04 A3037 RMK A01 T10371041  RH  097%=      5-min Rain = 0
KMD1 101100Z 25004KT M04/M04 A3037 RMK A01 T10371041  RH  097%=      5-min Rain = 0
KMD1 101101Z 26003KT M04/M04 A3037 RMK A01 T10371040  RH  097%=      5-min Rain = 0
KMD1 101102Z 26003KT M04/M04 A3037 RMK A01 T10371041  RH  097%=      5-min Rain = 0
KMD1 101103Z 26004KT M04/M04 A3037 RMK A01 T10371040  RH  097%=      5-min Rain = 0
KMD1 101104Z 26003KT M04/M04 A3037 RMK A01 T10371041  RH  097%=      5-min Rain = 0
KMD1 101105Z 26003KT M04/M04 A3037 RMK A01 T10371041  RH  097%=      5-min Rain = 0
KMD1 101106Z 26003KT M04/M04 A3037 RMK A01 T10371041  RH  097%=      5-min Rain = 0
KMD1 101107Z 27003KT M04/M04 A3037 RMK A01 T10381042  RH  097%=      5-min Rain = 0
KMD1 101108Z 27004KT M04/M04 A3037 RMK A01 T10391043  RH  097%=      5-min Rain = 0
KMD1 101109Z 27004KT M04/M04 A3037 RMK A01 T10391043  RH  097%=      5-min Rain = 0
KMD1 101110Z 27004KT M04/M04 A3037 RMK A01 T10391043  RH  097%=      5-min Rain = 0
KMD1 101111Z 27004KT M04/M04 A3037 RMK A01 T10391043  RH  097%=      5-min Rain = 0
KMD1 101112Z 27003KT M04/M04 A3037 RMK A01 T10391043  RH  097%=      5-min Rain = 0
KMD1 101113Z 27003KT M04/M04 A3037 RMK A01 T10391043  RH  097%=      5-min Rain = 0
KMD1 101114Z 27003KT M04/M04 A3037 RMK A01 T10391043  RH  097%=      5-min Rain = 0
KMD1 101115Z 27003KT M04/M04 A3037 RMK A01 T10391043  RH  097%=      5-min Rain = 0
KMD1 101116Z 27003KT M04/M04 A3037 RMK A01 T10391043  RH  097%=      5-min Rain = 0
KMD1 101117Z 27004KT M04/M04 A3037 RMK A01 T10391043  RH  097%=      5-min Rain = 0
KMD1 101118Z 27003KT M04/M04 A3037 RMK A01 T10391043  RH  097%=      5-min Rain = 0
KMD1 101119Z 27003KT M04/M04 A3037 RMK A01 T10391043  RH  097%=      5-min Rain = 0
KMD1 101120Z 27003KT M04/M04 A3037 RMK A01 T10391043  RH  097%=      5-min Rain = 0
KMD1 101121Z 26003KT M04/M04 A3037 RMK A01 T10381043  RH  097%=      5-min Rain = 0
KMD1 101122Z 27002KT M04/M04 A3037 RMK A01 T10391043  RH  097%=      5-min Rain = 0
KMD1 101123Z 26002KT M04/M04 A3037 RMK A01 T10391043  RH  097%=      5-min Rain = 0
KMD1 101124Z 26003KT M04/M04 A3037 RMK A01 T10391043  RH  097%=      5-min Rain = 0
KMD1 101125Z 26003KT M04/M04 A3037 RMK A01 T10391043  RH  097%=      5-min Rain = 0
KMD1 101126Z 26003KT M04/M04 A3037 RMK A01 T10391043  RH  097%=      5-min Rain = 0
KMD1 101127Z 25003KT M04/M04 A3037 RMK A01 T10381043  RH  097%=      5-min Rain = 0
KMD1 101128Z 25004KT M04/M04 A3037 RMK A01 T10381042  RH  097%=      5-min Rain = 0
KMD1 101129Z 25004KT M04/M04 A3037 RMK A01 T10381043  RH  097%=      5-min Rain = 0
KMD1 101130Z 25004KT M04/M04 A3037 RMK A01 T10381042  RH  097%=      5-min Rain = 0
KMD1 101131Z 24003KT M04/M04 A3037 RMK A01 T10381042  RH  097%=      5-min Rain = 0
KMD1 101132Z 25004KT M04/M04 A3037 RMK A01 T10381042  RH  097%=      5-min Rain = 0
KMD1 101133Z 24004KT M04/M04 A3037 RMK A01 T10381042  RH  097%=      5-min Rain = 0
KMD1 101134Z 25004KT M04/M04 A3037 RMK A01 T10381042  RH  097%=      5-min Rain = 0
KMD1 101135Z 25004KT M04/M04 A3037 RMK A01 T10371042  RH  097%=      5-min Rain = 0
KMD1 101136Z 26004KT M04/M04 A3037 RMK A01 T10371041  RH  097%=      5-min Rain = 0
KMD1 101137Z 25005KT M04/M04 A3037 RMK A01 T10371041  RH  097%=      5-min Rain = 0
KMD1 101138Z 25003KT M04/M04 A3037 RMK A01 T10371041  RH  097%=      5-min Rain = 0
KMD1 101139Z 25004KT M04/M04 A3037 RMK A01 T10361041  RH  097%=      5-min Rain = 0
KMD1 101140Z 25004KT M04/M04 A3038 RMK A01 T10371041  RH  097%=      5-min Rain = 0
KMD1 101141Z 25004KT M04/M04 A3038 RMK A01 T10371041  RH  097%=      5-min Rain = 0
KMD1 101142Z 26004KT M04/M04 A3038 RMK A01 T10361041  RH  097%=      5-min Rain = 0
KMD1 101143Z 26004KT M04/M04 A3038 RMK A01 T10371041  RH  097%=      5-min Rain = 0
KMD1 101144Z 25004KT M04/M04 A3038 RMK A01 T10361041  RH  097%=      5-min Rain = 0
KMD1 101145Z 26003KT M04/M04 A3038 RMK A01 T10361041  RH  097%=      5-min Rain = 0
KMD1 101146Z 25003KT M04/M04 A3038 RMK A01 T10361041  RH  097%=      5-min Rain = 0
KMD1 101147Z 25004KT M04/M04 A3038 RMK A01 T10361041  RH  097%=      5-min Rain = 0
KMD1 101148Z 25004KT M04/M04 A3038 RMK A01 T10371041  RH  097%=      5-min Rain = 0
KMD1 101149Z 25004KT M04/M04 A3038 RMK A01 T10361041  RH  097%=      5-min Rain = 0
KMD1 101150Z 25003KT M04/M04 A3038 RMK A01 T10361041  RH  097%=      5-min Rain = 0
KMD1 101151Z 26005KT M04/M04 A3038 RMK A01 T10361041  RH  097%=      5-min Rain = 0
KMD1 101152Z 26004KT M04/M04 A3038 RMK A01 T10361041  RH  097%=      5-min Rain = 0
KMD1 101153Z 26004KT M04/M04 A3038 RMK A01 T10371041  RH  097%=      5-min Rain = 0
KMD1 101154Z 25003KT M04/M04 A3038 RMK A01 T10361041  RH  097%=      5-min Rain = 0
KMD1 101155Z 25004KT M04/M04 A3038 RMK A01 T10371041  RH  097%=      5-min Rain = 0
KMD1 101156Z 25004KT M04/M04 A3038 RMK A01 T10371042  RH  097%=      5-min Rain = 0
KMD1 101157Z 26004KT M04/M04 A3038 RMK A01 T10371042  RH  097%=      5-min Rain = 0
KMD1 101158Z 25004KT M04/M04 A3038 RMK A01 T10371042  RH  097%=      5-min Rain = 0
KMD1 101159Z 26003KT M04/M04 A3038 RMK A01 T10371041  RH  097%=      5-min Rain = 0
KMD1 101200Z 26003KT M04/M04 A3038 RMK A01 T10371042  RH  097%=      5-min Rain = 0
KMD1 101201Z 26003KT M04/M04 A3038 RMK A01 T10371042  RH  096%=      5-min Rain = 0
KMD1 101202Z 25003KT M04/M04 A3038 RMK A01 T10381043  RH  096%=      5-min Rain = 0
KMD1 101203Z 26003KT M04/M04 A3038 RMK A01 T10391044  RH  096%=      5-min Rain = 0
KMD1 101204Z 25003KT M04/M05 A3038 RMK A01 T10401045  RH  096%=      5-min Rain = 0
KMD1 101205Z 26003KT M04/M04 A3038 RMK A01 T10391044  RH  096%=      5-min Rain = 0
KMD1 101206Z 25003KT M04/M04 A3038 RMK A01 T10391044  RH  096%=      5-min Rain = 0
KMD1 101207Z 25004KT M04/M04 A3038 RMK A01 T10391044  RH  096%=      5-min Rain = 0
KMD1 101208Z 26003KT M04/M04 A3038 RMK A01 T10401044  RH  097%=      5-min Rain = 0
KMD1 101209Z 25004KT M04/M05 A3038 RMK A01 T10401045  RH  096%=      5-min Rain = 0
KMD1 101210Z 25004KT M04/M04 A3038 RMK A01 T10401044  RH  097%=      5-min Rain = 0
KMD1 101211Z 25004KT M04/M04 A3038 RMK A01 T10401044  RH  097%=      5-min Rain = 0
KMD1 101212Z 25004KT M04/M04 A3038 RMK A01 T10391044  RH  097%=      5-min Rain = 0
KMD1 101213Z 25003KT M04/M04 A3038 RMK A01 T10391044  RH  097%=      5-min Rain = 0
KMD1 101214Z 25004KT M04/M04 A3038 RMK A01 T10391044  RH  097%=      5-min Rain = 0
KMD1 101215Z 25004KT M04/M04 A3039 RMK A01 T10391044  RH  097%=      5-min Rain = 0
KMD1 101216Z 25005KT M04/M04 A3039 RMK A01 T10391044  RH  097%=      5-min Rain = 0
KMD1 101217Z 26004KT M04/M04 A3039 RMK A01 T10391043  RH  097%=      5-min Rain = 0
KMD1 101218Z 25004KT M04/M04 A3039 RMK A01 T10381043  RH  097%=      5-min Rain = 0
KMD1 101219Z 25004KT M04/M04 A3039 RMK A01 T10381043  RH  097%=      5-min Rain = 0
KMD1 101220Z 26004KT M04/M04 A3039 RMK A01 T10381043  RH  097%=      5-min Rain = 0
KMD1 101221Z 25004KT M04/M04 A3039 RMK A01 T10381043  RH  097%=      5-min Rain = 0
KMD1 101222Z 25004KT M04/M04 A3039 RMK A01 T10381043  RH  097%=      5-min Rain = 0
KMD1 101223Z 25003KT M04/M04 A3039 RMK A01 T10381043  RH  097%=      5-min Rain = 0
KMD1 101224Z 25004KT M04/M04 A3039 RMK A01 T10381043  RH  097%=      5-min Rain = 0
KMD1 101225Z 25003KT M04/M04 A3039 RMK A01 T10381043  RH  097%=      5-min Rain = 0
KMD1 101226Z 25004KT M04/M04 A3039 RMK A01 T10391043  RH  096%=      5-min Rain = 0
KMD1 101227Z 25004KT M04/M04 A3039 RMK A01 T10391044  RH  096%=      5-min Rain = 0
KMD1 101228Z 25004KT M04/M04 A3039 RMK A01 T10391043  RH  097%=      5-min Rain = 0
KMD1 101229Z 25004KT M04/M04 A3039 RMK A01 T10391043  RH  097%=      5-min Rain = 0
KMD1 101230Z 25004KT M04/M04 A3039 RMK A01 T10391043  RH  097%=      5-min Rain = 0
KMD1 101231Z 24004KT M04/M04 A3039 RMK A01 T10391043  RH  097%=      5-min Rain = 0
KMD1 101232Z 24004KT M04/M04 A3039 RMK A01 T10381043  RH  097%=      5-min Rain = 0
KMD1 101233Z 24004KT M04/M04 A3039 RMK A01 T10391043  RH  096%=      5-min Rain = 0
KMD1 101234Z 24004KT M04/M04 A3039 RMK A01 T10391044  RH  096%=      5-min Rain = 0
KMD1 101235Z 25004KT M04/M04 A3039 RMK A01 T10391044  RH  096%=      5-min Rain = 0
KMD1 101236Z 25004KT M04/M05 A3039 RMK A01 T10401045  RH  096%=      5-min Rain = 0
KMD1 101237Z 24004KT M04/M04 A3039 RMK A01 T10391044  RH  096%=      5-min Rain = 0
KMD1 101238Z 25004KT M04/M05 A3039 RMK A01 T10401045  RH  096%=      5-min Rain = 0
KMD1 101239Z 24004KT M04/M05 A3039 RMK A01 T10401045  RH  096%=      5-min Rain = 0
KMD1 101240Z 24004KT M04/M05 A3039 RMK A01 T10401045  RH  096%=      5-min Rain = 0
KMD1 101241Z 24004KT M04/M05 A3039 RMK A01 T10401045  RH  096%=      5-min Rain = 0
KMD1 101242Z 25005KT M04/M05 A3039 RMK A01 T10411046  RH  096%=      5-min Rain = 0
KMD1 101243Z 25005KT M04/M05 A3039 RMK A01 T10411046  RH  096%=      5-min Rain = 0
KMD1 101244Z 25004KT M04/M05 A3039 RMK A01 T10411046  RH  096%=      5-min Rain = 0
KMD1 101245Z 25004KT M04/M05 A3039 RMK A01 T10411046  RH  096%=      5-min Rain = 0
KMD1 101246Z 25004KT M04/M05 A3039 RMK A01 T10411046  RH  096%=      5-min Rain = 0
KMD1 101247Z 25004KT M04/M05 A3039 RMK A01 T10421047  RH  096%=      5-min Rain = 0
KMD1 101248Z 25004KT M04/M05 A3039 RMK A01 T10411046  RH  096%=      5-min Rain = 0
KMD1 101249Z 25004KT M04/M05 A3039 RMK A01 T10411046  RH  096%=      5-min Rain = 0
KMD1 101250Z 25004KT M04/M05 A3039 RMK A01 T10411046  RH  097%=      5-min Rain = 0
KMD1 101251Z 26004KT M04/M05 A3039 RMK A01 T10421046  RH  097%=      5-min Rain = 0
KMD1 101252Z 26004KT M04/M05 A3039 RMK A01 T10411046  RH  097%=      5-min Rain = 0
KMD1 101253Z 26004KT M04/M05 A304 RMK A01 T10411046  RH  097%=      5-min Rain = 0
KMD1 101254Z 26004KT M04/M05 A304 RMK A01 T10411046  RH  097%=      5-min Rain = 0
KMD1 101255Z 26005KT M04/M05 A304 RMK A01 T10411046  RH  097%=      5-min Rain = 0
KMD1 101256Z 26004KT M04/M05 A304 RMK A01 T10411046  RH  097%=      5-min Rain = 0
KMD1 101257Z 25004KT M04/M05 A304 RMK A01 T10411045  RH  097%=      5-min Rain = 0
KMD1 101258Z 25005KT M04/M05 A304 RMK A01 T10401045  RH  097%=      5-min Rain = 0
KMD1 101259Z 25004KT M04/M05 A304 RMK A01 T10401045  RH  097%=      5-min Rain = 0
KMD1 101300Z 26004KT M04/M05 A304 RMK A01 T10401045  RH  097%=      5-min Rain = 0
KMD1 101301Z 26005KT M04/M05 A304 RMK A01 T10401045  RH  097%=      5-min Rain = 0
KMD1 101302Z 26004KT M04/M05 A304 RMK A01 T10401045  RH  097%=      5-min Rain = 0
KMD1 101303Z 26004KT M04/M05 A304 RMK A01 T10401045  RH  097%=      5-min Rain = 0
KMD1 101304Z 26003KT M04/M04 A304 RMK A01 T10401044  RH  097%=      5-min Rain = 0
KMD1 101305Z 26003KT M04/M04 A304 RMK A01 T10401044  RH  097%=      5-min Rain = 0
KMD1 101306Z 26003KT M04/M04 A304 RMK A01 T10401044  RH  096%=      5-min Rain = 0
KMD1 101307Z 27001KT M04/M05 A304 RMK A01 T10401045  RH  096%=      5-min Rain = 0
KMD1 101308Z 26002KT M04/M05 A304 RMK A01 T10421048  RH  096%=      5-min Rain = 0
KMD1 101309Z 27002KT M04/M05 A304 RMK A01 T10431049  RH  096%=      5-min Rain = 0
KMD1 101310Z 27002KT M05/M05 A304 RMK A01 T10451051  RH  096%=      5-min Rain = 0
KMD1 101311Z 28002KT M05/M05 A304 RMK A01 T10451051  RH  096%=      5-min Rain = 0
KMD1 101312Z 28003KT M05/M05 A304 RMK A01 T10451051  RH  096%=      5-min Rain = 0
KMD1 101313Z 28003KT M05/M05 A304 RMK A01 T10461052  RH  096%=      5-min Rain = 0
KMD1 101314Z 28003KT M05/M05 A304 RMK A01 T10461052  RH  096%=      5-min Rain = 0
KMD1 101315Z 28003KT M05/M05 A304 RMK A01 T10461052  RH  096%=      5-min Rain = 0
KMD1 101316Z 28003KT M05/M05 A304 RMK A01 T10471053  RH  096%=      5-min Rain = 0
KMD1 101317Z 27003KT M05/M05 A304 RMK A01 T10471052  RH  096%=      5-min Rain = 0
KMD1 101318Z 27003KT M05/M05 A304 RMK A01 T10461052  RH  096%=      5-min Rain = 0
KMD1 101319Z 27004KT M05/M05 A304 RMK A01 T10461051  RH  096%=      5-min Rain = 0
KMD1 101320Z 27003KT M05/M05 A304 RMK A01 T10451050  RH  096%=      5-min Rain = 0
KMD1 101321Z 27004KT M04/M05 A304 RMK A01 T10441049  RH  096%=      5-min Rain = 0
KMD1 101322Z 26003KT M04/M05 A304 RMK A01 T10441049  RH  096%=      5-min Rain = 0
KMD1 101323Z 27003KT M04/M05 A304 RMK A01 T10441049  RH  096%=      5-min Rain = 0
KMD1 101324Z 27003KT M04/M05 A304 RMK A01 T10441049  RH  096%=      5-min Rain = 0
KMD1 101325Z 27003KT M04/M05 A304 RMK A01 T10431048  RH  096%=      5-min Rain = 0
KMD1 101326Z 27002KT M04/M05 A304 RMK A01 T10431049  RH  096%=      5-min Rain = 0
KMD1 101327Z 26002KT M04/M05 A304 RMK A01 T10431048  RH  096%=      5-min Rain = 0
KMD1 101328Z 26003KT M04/M05 A304 RMK A01 T10431048  RH  096%=      5-min Rain = 0
KMD1 101329Z 26003KT M04/M05 A304 RMK A01 T10431048  RH  096%=      5-min Rain = 0
KMD1 101330Z 26002KT M04/M05 A304 RMK A01 T10431048  RH  096%=      5-min Rain = 0
KMD1 101331Z 26002KT M04/M05 A3041 RMK A01 T10431048  RH  096%=      5-min Rain = 0
KMD1 101332Z 25003KT M04/M05 A3041 RMK A01 T10431048  RH  096%=      5-min Rain = 0
KMD1 101333Z 25003KT M04/M05 A3041 RMK A01 T10421048  RH  096%=      5-min Rain = 0
KMD1 101334Z 25003KT M04/M05 A3041 RMK A01 T10421047  RH  096%=      5-min Rain = 0
KMD1 101335Z 25002KT M04/M05 A3041 RMK A01 T10421047  RH  096%=      5-min Rain = 0
KMD1 101336Z 25002KT M04/M05 A3041 RMK A01 T10421047  RH  096%=      5-min Rain = 0
KMD1 101337Z 24002KT M04/M05 A3041 RMK A01 T10411047  RH  096%=      5-min Rain = 0
KMD1 101338Z 25002KT M04/M05 A3041 RMK A01 T10411047  RH  096%=      5-min Rain = 0
KMD1 101339Z 24002KT M04/M05 A3041 RMK A01 T10411047  RH  096%=      5-min Rain = 0
KMD1 101340Z 25002KT M04/M05 A3041 RMK A01 T10411047  RH  096%=      5-min Rain = 0
KMD1 101341Z 25003KT M04/M05 A3041 RMK A01 T10411047  RH  096%=      5-min Rain = 0
KMD1 101342Z 25003KT M04/M05 A3041 RMK A01 T10411047  RH  096%=      5-min Rain = 0
KMD1 101343Z 25003KT M04/M05 A3041 RMK A01 T10421048  RH  096%=      5-min Rain = 0
KMD1 101344Z 25003KT M04/M05 A3041 RMK A01 T10411047  RH  096%=      5-min Rain = 0
KMD1 101345Z 26003KT M04/M05 A3041 RMK A01 T10411047  RH  096%=      5-min Rain = 0
KMD1 101346Z 26002KT M04/M05 A3041 RMK A01 T10411047  RH  096%=      5-min Rain = 0
KMD1 101347Z 25002KT M04/M05 A3041 RMK A01 T10401046  RH  096%=      5-min Rain = 0
KMD1 101348Z 25002KT M04/M05 A3041 RMK A01 T10411047  RH  096%=      5-min Rain = 0
KMD1 101349Z 25002KT M04/M05 A3041 RMK A01 T10401046  RH  096%=      5-min Rain = 0
KMD1 101350Z 25002KT M04/M05 A3041 RMK A01 T10401046  RH  095%=      5-min Rain = 0
KMD1 101351Z 25002KT M04/M05 A3041 RMK A01 T10401046  RH  095%=      5-min Rain = 0
KMD1 101352Z 26002KT M04/M05 A3041 RMK A01 T10391046  RH  095%=      5-min Rain = 0
KMD1 101353Z 26002KT M04/M05 A3041 RMK A01 T10391046  RH  095%=      5-min Rain = 0
KMD1 101354Z 26002KT M04/M05 A3041 RMK A01 T10391045  RH  095%=      5-min Rain = 0
KMD1 101355Z 25002KT M04/M04 A3041 RMK A01 T10381044  RH  095%=      5-min Rain = 0
KMD1 101356Z 25002KT M04/M05 A3041 RMK A01 T10381045  RH  095%=      5-min Rain = 0
KMD1 101357Z 25002KT M04/M04 A3041 RMK A01 T10381044  RH  095%=      5-min Rain = 0
KMD1 101358Z 25002KT M04/M05 A3041 RMK A01 T10381045  RH  095%=      5-min Rain = 0
KMD1 101359Z 25002KT M04/M04 A3041 RMK A01 T10371044  RH  095%=      5-min Rain = 0
KMD1 101400Z 25002KT M04/M04 A3041 RMK A01 T10371044  RH  095%=      5-min Rain = 0
KMD1 101401Z 26002KT M04/M04 A3041 RMK A01 T10371044  RH  095%=      5-min Rain = 0
KMD1 101402Z 24002KT M04/M04 A3041 RMK A01 T10361043  RH  095%=      5-min Rain = 0
KMD1 101403Z 25002KT M04/M04 A3041 RMK A01 T10361043  RH  095%=      5-min Rain = 0
KMD1 101404Z 25002KT M04/M04 A3041 RMK A01 T10351042  RH  095%=      5-min Rain = 0
KMD1 101405Z 25002KT M04/M04 A3041 RMK A01 T10351042  RH  095%=      5-min Rain = 0
KMD1 101406Z 25002KT M03/M04 A3041 RMK A01 T10341041  RH  095%=      5-min Rain = 0
KMD1 101407Z 25002KT M03/M04 A3041 RMK A01 T10331040  RH  095%=      5-min Rain = 0
KMD1 101408Z 26003KT M03/M04 A3041 RMK A01 T10331040  RH  095%=      5-min Rain = 0
KMD1 101409Z 25002KT M03/M04 A3041 RMK A01 T10331040  RH  095%=      5-min Rain = 0
KMD1 101410Z 25002KT M03/M04 A3041 RMK A01 T10321039  RH  095%=      5-min Rain = 0
KMD1 101411Z 25003KT M03/M04 A3041 RMK A01 T10321039  RH  095%=      5-min Rain = 0
KMD1 101412Z 25004KT M03/M04 A3041 RMK A01 T10321040  RH  094%=      5-min Rain = 0
KMD1 101413Z 25004KT M03/M04 A3041 RMK A01 T10321040  RH  094%=      5-min Rain = 0
KMD1 101414Z 25004KT M03/M04 A3041 RMK A01 T10321040  RH  094%=      5-min Rain = 0
KMD1 101415Z 25004KT M03/M04 A3041 RMK A01 T10321040  RH  094%=      5-min Rain = 0
KMD1 101416Z 25004KT M03/M04 A3041 RMK A01 T10321039  RH  094%=      5-min Rain = 0
KMD1 101417Z 25005KT M03/M04 A3041 RMK A01 T10311039  RH  094%=      5-min Rain = 0
KMD1 101418Z 24004KT M03/M04 A3041 RMK A01 T10311039  RH  094%=      5-min Rain = 0
KMD1 101419Z 25004KT M03/M04 A3041 RMK A01 T10311039  RH  094%=      5-min Rain = 0
KMD1 101420Z 25005KT M03/M04 A3041 RMK A01 T10301039  RH  094%=      5-min Rain = 0
KMD1 101421Z 24005KT M03/M04 A3041 RMK A01 T10301038  RH  094%=      5-min Rain = 0
KMD1 101422Z 24004KT M03/M04 A3041 RMK A01 T10301038  RH  094%=      5-min Rain = 0
KMD1 101423Z 25003KT M03/M04 A3041 RMK A01 T10301038  RH  094%=      5-min Rain = 0
KMD1 101424Z 25003KT M03/M04 A3041 RMK A01 T10291038  RH  094%=      5-min Rain = 0
KMD1 101425Z 25003KT M03/M04 A3041 RMK A01 T10291037  RH  094%=      5-min Rain = 0
KMD1 101426Z 25004KT M03/M04 A3041 RMK A01 T10291037  RH  094%=      5-min Rain = 0
KMD1 101427Z 25003KT M03/M04 A3041 RMK A01 T10291038  RH  094%=      5-min Rain = 0
KMD1 101428Z 25004KT M03/M04 A3041 RMK A01 T10281037  RH  094%=      5-min Rain = 0
KMD1 101429Z 25004KT M03/M04 A3041 RMK A01 T10281036  RH  094%=      5-min Rain = 0
KMD1 101430Z 25004KT M03/M04 A3041 RMK A01 T10271036  RH  094%=      5-min Rain = 0
KMD1 101431Z 25004KT M03/M04 A3041 RMK A01 T10271036  RH  094%=      5-min Rain = 0
KMD1 101432Z 25004KT M03/M04 A3041 RMK A01 T10271036  RH  094%=      5-min Rain = 0
KMD1 101433Z 25004KT M03/M04 A3041 RMK A01 T10271035  RH  094%=      5-min Rain = 0
KMD1 101434Z 25004KT M03/M04 A3041 RMK A01 T10261035  RH  094%=      5-min Rain = 0
KMD1 101435Z 26003KT M03/M04 A3041 RMK A01 T10261035  RH  094%=      5-min Rain = 0
KMD1 101436Z 26004KT M03/M03 A3041 RMK A01 T10261034  RH  094%=      5-min Rain = 0
KMD1 101437Z 26004KT M03/M03 A3041 RMK A01 T10251034  RH  094%=      5-min Rain = 0
KMD1 101438Z 25004KT M03/M03 A3041 RMK A01 T10251033  RH  094%=      5-min Rain = 0
KMD1 101439Z 24005KT M03/M03 A3041 RMK A01 T10251033  RH  094%=      5-min Rain = 0
KMD1 101440Z 25004KT M02/M03 A3042 RMK A01 T10241033  RH  094%=      5-min Rain = 0
KMD1 101441Z 25004KT M02/M03 A3042 RMK A01 T10241032  RH  094%=      5-min Rain = 0
KMD1 101442Z 25004KT M02/M03 A3042 RMK A01 T10231031  RH  094%=      5-min Rain = 0
KMD1 101443Z 25004KT M02/M03 A3042 RMK A01 T10221031  RH  094%=      5-min Rain = 0
KMD1 101444Z 26003KT M02/M03 A3042 RMK A01 T10221031  RH  094%=      5-min Rain = 0
KMD1 101445Z 25004KT M02/M03 A3042 RMK A01 T10211030  RH  094%=      5-min Rain = 0
KMD1 101446Z 25004KT M02/M03 A3042 RMK A01 T10211030  RH  094%=      5-min Rain = 0
KMD1 101447Z 26004KT M02/M03 A3042 RMK A01 T10201029  RH  094%=      5-min Rain = 0
KMD1 101448Z 26005KT M02/M03 A3042 RMK A01 T10201028  RH  094%=      5-min Rain = 0
KMD1 101449Z 26004KT M02/M03 A3042 RMK A01 T10201029  RH  093%=      5-min Rain = 0
KMD1 101450Z 25004KT M02/M03 A3042 RMK A01 T10201029  RH  093%=      5-min Rain = 0
KMD1 101451Z 25004KT M02/M03 A3042 RMK A01 T10191028  RH  093%=      5-min Rain = 0
KMD1 101452Z 25004KT M02/M03 A3042 RMK A01 T10181028  RH  093%=      5-min Rain = 0
KMD1 101453Z 25005KT M02/M03 A3042 RMK A01 T10181027  RH  093%=      5-min Rain = 0
KMD1 101454Z 24005KT M02/M03 A3042 RMK A01 T10181027  RH  093%=      5-min Rain = 0
KMD1 101455Z 25005KT M02/M03 A3042 RMK A01 T10171026  RH  093%=      5-min Rain = 0
KMD1 101456Z 25005KT M02/M03 A3042 RMK A01 T10171026  RH  093%=      5-min Rain = 0
KMD1 101457Z 25005KT M02/M03 A3042 RMK A01 T10161026  RH  093%=      5-min Rain = 0
KMD1 101458Z 25005KT M02/M03 A3042 RMK A01 T10161026  RH  093%=      5-min Rain = 0
KMD1 101459Z 24005KT M01/M02 A3042 RMK A01 T10141024  RH  093%=      5-min Rain = 0
KMD1 101500Z 24005KT M01/M02 A3042 RMK A01 T10141023  RH  093%=      5-min Rain = 0
KMD1 101501Z 25005KT M01/M02 A3042 RMK A01 T10141023  RH  093%=      5-min Rain = 0
KMD1 101502Z 24004KT M01/M02 A3042 RMK A01 T10131023  RH  093%=      5-min Rain = 0
KMD1 101503Z 24005KT M01/M02 A3042 RMK A01 T10121021  RH  093%=      5-min Rain = 0
KMD1 101504Z 24006KT M01/M02 A3042 RMK A01 T10111020  RH  093%=      5-min Rain = 0
KMD1 101505Z 24005KT M01/M02 A3042 RMK A01 T10111021  RH  093%=      5-min Rain = 0
KMD1 101506Z 25005KT M01/M02 A3042 RMK A01 T10101020  RH  093%=      5-min Rain = 0
KMD1 101507Z 25006KT M01/M02 A3042 RMK A01 T10101020  RH  093%=      5-min Rain = 0
KMD1 101508Z 25005KT M01/M02 A3042 RMK A01 T10091020  RH  093%=      5-min Rain = 0
KMD1 101509Z 25006KT M01/M02 A3042 RMK A01 T10091020  RH  093%=      5-min Rain = 0
KMD1 101510Z 25005KT M01/M02 A3042 RMK A01 T10081019  RH  093%=      5-min Rain = 0
KMD1 101511Z 25005KT M01/M02 A3042 RMK A01 T10071018  RH  093%=      5-min Rain = 0
KMD1 101512Z 24005KT M01/M02 A3042 RMK A01 T10061017  RH  093%=      5-min Rain = 0
KMD1 101513Z 24007KT M01/M02 A3042 RMK A01 T10051016  RH  092%=      5-min Rain = 0
KMD1 101514Z 24008KT M01/M02 A3042 RMK A01 T10051016  RH  092%=      5-min Rain = 0
KMD1 101515Z 25006KT M01/M02 A3042 RMK A01 T10051016  RH  092%=      5-min Rain = 0
KMD1 101516Z 24006KT M00/M02 A3042 RMK A01 T10041016  RH  092%=      5-min Rain = 0
KMD1 101517Z 25007KT M00/M02 A3042 RMK A01 T10031015  RH  092%=      5-min Rain = 0
KMD1 101518Z 25005KT M00/M01 A3042 RMK A01 T10021014  RH  092%=      5-min Rain = 0
KMD1 101519Z 25006KT M00/M01 A3042 RMK A01 T10021014  RH  092%=      5-min Rain = 0
KMD1 101520Z 25006KT M00/M01 A3042 RMK A01 T10011014  RH  091%=      5-min Rain = 0
KMD1 101521Z 25006KT M00/M01 A3042 RMK A01 T10011014  RH  091%=      5-min Rain = 0
KMD1 101522Z 25006KT 00/01 A3043 RMK A01 T00-00-13  RH  091%=      5-min Rain = 0
KMD1 101523Z 25006KT 00/01 A3043 RMK A01 T00000-13  RH  091%=      5-min Rain = 0
KMD1 101524Z 25005KT 00/M01 A3043 RMK A01 T00011013  RH  091%=      5-min Rain = 0
KMD1 101525Z 25005KT 00/M01 A3043 RMK A01 T00021011  RH  091%=      5-min Rain = 0
KMD1 101526Z 25004KT 00/M01 A3043 RMK A01 T00041009  RH  091%=      5-min Rain = 0
KMD1 101527Z 25005KT 01/M01 A3043 RMK A01 T00061006  RH  092%=      5-min Rain = 0
KMD1 101528Z 25005KT 01/M01 A3043 RMK A01 T00061007  RH  091%=      5-min Rain = 0
KMD1 101529Z 26006KT 01/M01 A3043 RMK A01 T00061007  RH  091%=      5-min Rain = 0
KMD1 101530Z 25005KT 01/M01 A3043 RMK A01 T00071008  RH  090%=      5-min Rain = 0
KMD1 101531Z 26006KT 01/M01 A3043 RMK A01 T00061009  RH  089%=      5-min Rain = 0
KMD1 101532Z 26006KT 01/M01 A3043 RMK A01 T00071008  RH  089%=      5-min Rain = 0
KMD1 101533Z 25006KT 01/M01 A3043 RMK A01 T00081008  RH  089%=      5-min Rain = 0
KMD1 101534Z 25008KT 01/M01 A3043 RMK A01 T00081009  RH  088%=      5-min Rain = 0
KMD1 101535Z 25006KT 01/M01 A3043 RMK A01 T00081010  RH  088%=      5-min Rain = 0
KMD1 101536Z 25007KT 01/M01 A3043 RMK A01 T00091008  RH  088%=      5-min Rain = 0
KMD1 101537Z 25008KT 01/M01 A3043 RMK A01 T00091009  RH  087%=      5-min Rain = 0
KMD1 101538Z 25007KT 01/M01 A3043 RMK A01 T00091010  RH  087%=      5-min Rain = 0
KMD1 101539Z 25007KT 01/M01 A3043 RMK A01 T00091010  RH  087%=      5-min Rain = 0
KMD1 101540Z 25006KT 01/M01 A3043 RMK A01 T00101009  RH  087%=      5-min Rain = 0
KMD1 101541Z 25005KT 01/M01 A3043 RMK A01 T00111008  RH  087%=      5-min Rain = 0
KMD1 101542Z 25006KT 01/M01 A3043 RMK A01 T00131006  RH  087%=      5-min Rain = 0
KMD1 101543Z 25005KT 01/M01 A3043 RMK A01 T00131007  RH  087%=      5-min Rain = 0
KMD1 101544Z 25004KT 01/M01 A3043 RMK A01 T00141007  RH  086%=      5-min Rain = 0
KMD1 101545Z 25006KT 02/M00 A3043 RMK A01 T00151004  RH  087%=      5-min Rain = 0
KMD1 101546Z 25005KT 02/M01 A3043 RMK A01 T00151005  RH  086%=      5-min Rain = 0
KMD1 101547Z 26005KT 02/M01 A3043 RMK A01 T00161005  RH  086%=      5-min Rain = 0
KMD1 101548Z 26005KT 02/M00 A3043 RMK A01 T00171004  RH  086%=      5-min Rain = 0
KMD1 101549Z 26005KT 02/M01 A3043 RMK A01 T00171005  RH  085%=      5-min Rain = 0
KMD1 101550Z 26004KT 02/M01 A3043 RMK A01 T00181005  RH  085%=      5-min Rain = 0
KMD1 101551Z 24004KT 02/M00 A3044 RMK A01 T00191004  RH  085%=      5-min Rain = 0
KMD1 101552Z 24005KT 02/M00 A3044 RMK A01 T00201001  RH  086%=      5-min Rain = 0
KMD1 101553Z 24006KT 02/M00 A3044 RMK A01 T00211002  RH  085%=      5-min Rain = 0
KMD1 101554Z 25005KT 02/M00 A3044 RMK A01 T00221001  RH  085%=      5-min Rain = 0
KMD1 101555Z 25004KT 02/M00 A3044 RMK A01 T00231001  RH  084%=      5-min Rain = 0
KMD1 101556Z 25005KT 02/M00 A3044 RMK A01 T00231002  RH  083%=      5-min Rain = 0
KMD1 101557Z 26003KT 02/M00 A3044 RMK A01 T00241002  RH  083%=      5-min Rain = 0
KMD1 101558Z 24004KT 03/00 A3044 RMK A01 T00260003  RH  085%=      5-min Rain = 0
KMD1 101559Z 24005KT 03/01 A3044 RMK A01 T00280005  RH  085%=      5-min Rain = 0
KMD1 101600Z 24004KT 03/00 A3044 RMK A01 T00280003  RH  084%=      5-min Rain = 0
KMD1 101601Z 24006KT 03/01 A3044 RMK A01 T00290005  RH  084%=      5-min Rain = 0
KMD1 101602Z 26005KT 03/00 A3044 RMK A01 T00300002  RH  082%=      5-min Rain = 0
KMD1 101603Z 26004KT 03/M00 A3044 RMK A01 T00291001  RH  081%=      5-min Rain = 0
KMD1 101604Z 26005KT 03/M00 A3044 RMK A01 T00291001  RH  081%=      5-min Rain = 0
KMD1 101605Z 26005KT 03/M00 A3044 RMK A01 T00291001  RH  081%=      5-min Rain = 0
KMD1 101606Z 26005KT 03/00 A3044 RMK A01 T00310003  RH  082%=      5-min Rain = 0
KMD1 101607Z 25005KT 03/00 A3044 RMK A01 T00320002  RH  080%=      5-min Rain = 0
KMD1 101608Z 26004KT 03/00 A3044 RMK A01 T00330001  RH  080%=      5-min Rain = 0
KMD1 101609Z 25003KT 03/00 A3044 RMK A01 T00340004  RH  081%=      5-min Rain = 0
KMD1 101610Z 24003KT 04/00 A3044 RMK A01 T00350004  RH  080%=      5-min Rain = 0
KMD1 101611Z 25003KT 04/00 A3044 RMK A01 T00350004  RH  080%=      5-min Rain = 0
KMD1 101612Z 26004KT 04/01 A3043 RMK A01 T00380008  RH  081%=      5-min Rain = 0
KMD1 101613Z 26003KT 04/01 A3043 RMK A01 T00390007  RH  080%=      5-min Rain = 0
KMD1 101614Z 25004KT 04/01 A3043 RMK A01 T00400006  RH  079%=      5-min Rain = 0
KMD1 101615Z 25003KT 04/00 A3043 RMK A01 T00400003  RH  077%=      5-min Rain = 0
KMD1 101616Z 25003KT 04/00 A3043 RMK A01 T00410002  RH  076%=      5-min Rain = 0
KMD1 101617Z 25003KT 04/00 A3043 RMK A01 T00410002  RH  076%=      5-min Rain = 0
KMD1 101618Z 25004KT 04/00 A3043 RMK A01 T00410004  RH  077%=      5-min Rain = 0
KMD1 101619Z 25005KT 04/01 A3043 RMK A01 T00430005  RH  076%=      5-min Rain = 0
KMD1 101620Z 25004KT 04/00 A3043 RMK A01 T00440001  RH  074%=      5-min Rain = 0
KMD1 101621Z 25005KT 05/00 A3043 RMK A01 T00460004  RH  074%=      5-min Rain = 0
KMD1 101622Z 26005KT 05/00 A3043 RMK A01 T00470003  RH  073%=      5-min Rain = 0
KMD1 101623Z 26005KT 05/00 A3043 RMK A01 T004800-0  RH  071%=      5-min Rain = 0
KMD1 101624Z 27005KT 05/M00 A3043 RMK A01 T00481002  RH  070%=      5-min Rain = 0
KMD1 101625Z 26004KT 05/00 A3043 RMK A01 T00490001  RH  071%=      5-min Rain = 0
KMD1 101626Z 26004KT 05/00 A3043 RMK A01 T00510003  RH  071%=      5-min Rain = 0
KMD1 101627Z 25004KT 05/00 A3043 RMK A01 T00510000  RH  070%=      5-min Rain = 0
KMD1 101628Z 24004KT 05/00 A3043 RMK A01 T00510002  RH  071%=      5-min Rain = 0
KMD1 101629Z 24005KT 05/01 A3043 RMK A01 T00520005  RH  071%=      5-min Rain = 0
KMD1 101630Z 24005KT 05/M00 A3043 RMK A01 T00531002  RH  068%=      5-min Rain = 0
KMD1 101631Z 27004KT 05/00 A3043 RMK A01 T00530002  RH  070%=      5-min Rain = 0
KMD1 101632Z 25005KT 06/01 A3043 RMK A01 T00550006  RH  070%=      5-min Rain = 0
KMD1 101633Z 26005KT 06/M00 A3043 RMK A01 T00561003  RH  066%=      5-min Rain = 0
KMD1 101634Z 26003KT 06/M01 A3043 RMK A01 T00561006  RH  065%=      5-min Rain = 0
KMD1 101635Z 26003KT 06/00 A3043 RMK A01 T00560002  RH  068%=      5-min Rain = 0
KMD1 101636Z 24003KT 06/M00 A3043 RMK A01 T00581001  RH  066%=      5-min Rain = 0
KMD1 101637Z 24004KT 06/00 A3043 RMK A01 T00590001  RH  066%=      5-min Rain = 0
KMD1 101638Z 25005KT 06/00 A3043 RMK A01 T00600004  RH  067%=      5-min Rain = 0
KMD1 101639Z 24005KT 06/M00 A3043 RMK A01 T00601002  RH  064%=      5-min Rain = 0
KMD1 101640Z 25004KT 06/M00 A3043 RMK A01 T00611002  RH  064%=      5-min Rain = 0
KMD1 101641Z 23004KT 06/00 A3043 RMK A01 T00610002  RH  066%=      5-min Rain = 0
KMD1 101642Z 25004KT 06/00 A3043 RMK A01 T00620003  RH  066%=      5-min Rain = 0
KMD1 101643Z 23004KT 06/01 A3043 RMK A01 T00640008  RH  067%=      5-min Rain = 0
KMD1 101644Z 23005KT 07/01 A3043 RMK A01 T00650007  RH  066%=      5-min Rain = 0
KMD1 101645Z 23004KT 07/00 A3043 RMK A01 T00650004  RH  065%=      5-min Rain = 0
KMD1 101646Z 22003KT 07/01 A3043 RMK A01 T00650010  RH  068%=      5-min Rain = 0
KMD1 101647Z 23004KT 07/01 A3043 RMK A01 T00680013  RH  068%=      5-min Rain = 0
KMD1 101648Z 24004KT 07/01 A3043 RMK A01 T00680008  RH  065%=      5-min Rain = 0
KMD1 101649Z 25004KT 07/01 A3043 RMK A01 T00680009  RH  066%=      5-min Rain = 0
KMD1 101650Z 24004KT 07/00 A3043 RMK A01 T00680004  RH  064%=      5-min Rain = 0
KMD1 101651Z 25003KT 07/00 A3043 RMK A01 T00680001  RH  062%=      5-min Rain = 0
KMD1 101652Z 23004KT 07/00 A3043 RMK A01 T00680002  RH  063%=      5-min Rain = 0
KMD1 101653Z 24005KT 07/00 A3043 RMK A01 T00690002  RH  063%=      5-min Rain = 0
KMD1 101654Z 25005KT 07/00 A3043 RMK A01 T00690002  RH  062%=      5-min Rain = 0
KMD1 101655Z 25004KT 07/01 A3043 RMK A01 T00700005  RH  063%=      5-min Rain = 0
KMD1 101656Z 24004KT 07/01 A3043 RMK A01 T00710010  RH  065%=      5-min Rain = 0
KMD1 101657Z 24004KT 07/01 A3043 RMK A01 T00720007  RH  063%=      5-min Rain = 0
KMD1 101658Z 24004KT 07/01 A3043 RMK A01 T00730008  RH  063%=      5-min Rain = 0
KMD1 101659Z 26002KT 08/02 A3043 RMK A01 T00750017  RH  067%=      5-min Rain = 0
KMD1 101700Z 25003KT 08/01 A3043 RMK A01 T00770011  RH  063%=      5-min Rain = 0
KMD1 101701Z 24005KT 08/01 A3043 RMK A01 T00770009  RH  062%=      5-min Rain = 0
KMD1 101702Z 25004KT 08/01 A3043 RMK A01 T00770006  RH  061%=      5-min Rain = 0
KMD1 101703Z 25002KT 08/00 A3043 RMK A01 T00760002  RH  059%=      5-min Rain = 0
KMD1 101704Z 25004KT 08/01 A3043 RMK A01 T00770009  RH  062%=      5-min Rain = 0
KMD1 101705Z 26004KT 08/01 A3043 RMK A01 T00780009  RH  061%=      5-min Rain = 0
KMD1 101706Z 22004KT 08/00 A3043 RMK A01 T00780004  RH  060%=      5-min Rain = 0
KMD1 101707Z 23004KT 08/01 A3043 RMK A01 T00780008  RH  061%=      5-min Rain = 0
KMD1 101708Z 20003KT 08/01 A3043 RMK A01 T00790008  RH  061%=      5-min Rain = 0
KMD1 101709Z 22003KT 08/01 A3042 RMK A01 T00810009  RH  061%=      5-min Rain = 0
KMD1 101710Z 22004KT 08/01 A3042 RMK A01 T00830012  RH  061%=      5-min Rain = 0
KMD1 101711Z 23004KT 09/02 A3042 RMK A01 T00850015  RH  061%=      5-min Rain = 0
KMD1 101712Z 23005KT 09/01 A3042 RMK A01 T00860014  RH  061%=      5-min Rain = 0
KMD1 101713Z 22003KT 09/01 A3042 RMK A01 T00860011  RH  059%=      5-min Rain = 0
KMD1 101714Z 24003KT 09/01 A3042 RMK A01 T00860011  RH  059%=      5-min Rain = 0
KMD1 101715Z 24005KT 09/01 A3042 RMK A01 T00870014  RH  060%=      5-min Rain = 0
KMD1 101716Z 28005KT 09/01 A3042 RMK A01 T00890014  RH  060%=      5-min Rain = 0
KMD1 101717Z 26004KT 09/01 A3042 RMK A01 T00900011  RH  058%=      5-min Rain = 0
KMD1 101718Z 25005KT 09/01 A3042 RMK A01 T00900014  RH  059%=      5-min Rain = 0
KMD1 101719Z 25004KT 09/01 A3042 RMK A01 T00900013  RH  059%=      5-min Rain = 0
KMD1 101720Z 25005KT 09/01 A3042 RMK A01 T00900013  RH  059%=      5-min Rain = 0
KMD1 101721Z 25006KT 09/01 A3042 RMK A01 T00900013  RH  059%=      5-min Rain = 0
KMD1 101722Z 26006KT 09/01 A3042 RMK A01 T00900007  RH  056%=      5-min Rain = 0
KMD1 101723Z 27004KT 09/01 A3042 RMK A01 T00890009  RH  057%=      5-min Rain = 0
KMD1 101724Z 28004KT 09/01 A3042 RMK A01 T00900007  RH  056%=      5-min Rain = 0
KMD1 101725Z 26004KT 09/01 A3041 RMK A01 T00900011  RH  058%=      5-min Rain = 0
KMD1 101726Z 26005KT 09/01 A3041 RMK A01 T00920012  RH  057%=      5-min Rain = 0
KMD1 101727Z 24005KT 09/01 A3041 RMK A01 T00920010  RH  056%=      5-min Rain = 0
KMD1 101728Z 26005KT 09/01 A3041 RMK A01 T00930009  RH  056%=      5-min Rain = 0
KMD1 101729Z 28006KT 09/01 A3041 RMK A01 T00920010  RH  056%=      5-min Rain = 0
KMD1 101730Z 27004KT 09/01 A3041 RMK A01 T00920012  RH  057%=      5-min Rain = 0
KMD1 101731Z 28005KT 09/01 A3041 RMK A01 T00930009  RH  056%=      5-min Rain = 0
KMD1 101732Z 28005KT 09/01 A3041 RMK A01 T00930009  RH  056%=      5-min Rain = 0
KMD1 101733Z 28004KT 09/00 A3041 RMK A01 T00920004  RH  054%=      5-min Rain = 0
KMD1 101734Z 27004KT 09/01 A3041 RMK A01 T00920014  RH  058%=      5-min Rain = 0
KMD1 101735Z 29003KT 10/01 A3041 RMK A01 T00950011  RH  056%=      5-min Rain = 0
KMD1 101736Z 26006KT 10/01 A3041 RMK A01 T00950009  RH  055%=      5-min Rain = 0
KMD1 101737Z 25005KT 10/01 A3041 RMK A01 T00950010  RH  055%=      5-min Rain = 0
KMD1 101738Z 25005KT 10/01 A3041 RMK A01 T00950008  RH  054%=      5-min Rain = 0
KMD1 101739Z 27005KT 10/01 A304 RMK A01 T00960009  RH  055%=      5-min Rain = 0
KMD1 101740Z 25006KT 10/01 A304 RMK A01 T00960011  RH  055%=      5-min Rain = 0
KMD1 101741Z 24005KT 10/01 A304 RMK A01 T00960014  RH  057%=      5-min Rain = 0
KMD1 101742Z 24005KT 10/01 A304 RMK A01 T00960010  RH  055%=      5-min Rain = 0
KMD1 101743Z 23004KT 10/01 A304 RMK A01 T00960013  RH  056%=      5-min Rain = 0
KMD1 101744Z 23006KT 10/02 A304 RMK A01 T00980017  RH  057%=      5-min Rain = 0
KMD1 101745Z 23005KT 10/01 A304 RMK A01 T01000014  RH  055%=      5-min Rain = 0
KMD1 101746Z 24003KT 10/01 A304 RMK A01 T01000009  RH  053%=      5-min Rain = 0
KMD1 101747Z 25004KT 10/01 A304 RMK A01 T01000011  RH  054%=      5-min Rain = 0
KMD1 101748Z 26006KT 10/01 A304 RMK A01 T01010014  RH  055%=      5-min Rain = 0
KMD1 101749Z 28006KT 10/01 A304 RMK A01 T01030013  RH  054%=      5-min Rain = 0
KMD1 101750Z 27006KT 10/01 A304 RMK A01 T01030012  RH  053%=      5-min Rain = 0
KMD1 101751Z 28006KT 10/02 A304 RMK A01 T01030015  RH  055%=      5-min Rain = 0
KMD1 101752Z 28004KT 11/02 A304 RMK A01 T01050019  RH  055%=      5-min Rain = 0
KMD1 101753Z 27003KT 11/02 A304 RMK A01 T01060016  RH  054%=      5-min Rain = 0
KMD1 101754Z 26007KT 11/02 A304 RMK A01 T01070016  RH  053%=      5-min Rain = 0
KMD1 101755Z 25006KT 11/01 A304 RMK A01 T01060008  RH  051%=      5-min Rain = 0
KMD1 101756Z 25003KT 11/01 A304 RMK A01 T01050007  RH  051%=      5-min Rain = 0
KMD1 101757Z 28002KT 10/01 A304 RMK A01 T01040009  RH  052%=      5-min Rain = 0
KMD1 101758Z 26003KT 11/01 A3039 RMK A01 T01050014  RH  053%=      5-min Rain = 0
KMD1 101759Z 27005KT 11/01 A3039 RMK A01 T01070014  RH  053%=      5-min Rain = 0
KMD1 101800Z 27005KT 11/01 A3039 RMK A01 T01070011  RH  051%=      5-min Rain = 0
KMD1 101801Z 28004KT 11/01 A3039 RMK A01 T01060009  RH  051%=      5-min Rain = 0
KMD1 101802Z 28003KT 11/01 A3039 RMK A01 T01060012  RH  052%=      5-min Rain = 0
KMD1 101803Z 27004KT 11/01 A3039 RMK A01 T01070014  RH  053%=      5-min Rain = 0
KMD1 101804Z 26004KT 11/01 A3039 RMK A01 T01080011  RH  051%=      5-min Rain = 0
KMD1 101805Z 26004KT 11/02 A3039 RMK A01 T01080015  RH  052%=      5-min Rain = 0
KMD1 101806Z 26005KT 11/02 A3039 RMK A01 T01100022  RH  054%=      5-min Rain = 0
KMD1 101807Z 28004KT 11/02 A3039 RMK A01 T01120021  RH  053%=      5-min Rain = 0
KMD1 101808Z 28006KT 11/01 A3039 RMK A01 T01130009  RH  049%=      5-min Rain = 0
KMD1 101809Z 28006KT 11/01 A3039 RMK A01 T01110008  RH  049%=      5-min Rain = 0
KMD1 101810Z 28004KT 11/01 A3039 RMK A01 T01090007  RH  049%=      5-min Rain = 0
KMD1 101811Z 29005KT 11/01 A3038 RMK A01 T01080010  RH  051%=      5-min Rain = 0
KMD1 101812Z 28007KT 11/01 A3038 RMK A01 T01080010  RH  051%=      5-min Rain = 0
KMD1 101813Z 29006KT 11/01 A3038 RMK A01 T01090006  RH  049%=      5-min Rain = 0
KMD1 101814Z 27004KT 11/01 A3038 RMK A01 T01080005  RH  049%=      5-min Rain = 0
KMD1 101815Z 26006KT 11/01 A3038 RMK A01 T01080011  RH  051%=      5-min Rain = 0
KMD1 101816Z 24005KT 11/01 A3038 RMK A01 T01100013  RH  051%=      5-min Rain = 0
KMD1 101817Z 25004KT 11/01 A3038 RMK A01 T01100012  RH  051%=      5-min Rain = 0
KMD1 101818Z 25005KT 11/01 A3038 RMK A01 T01110010  RH  050%=      5-min Rain = 0
KMD1 101819Z 24004KT 11/01 A3038 RMK A01 T01110011  RH  050%=      5-min Rain = 0
KMD1 101820Z 22003KT 11/01 A3038 RMK A01 T01100005  RH  048%=      5-min Rain = 0
KMD1 101821Z 23003KT 11/01 A3038 RMK A01 T01100007  RH  049%=      5-min Rain = 0
KMD1 101822Z 24004KT 11/01 A3038 RMK A01 T01110010  RH  050%=      5-min Rain = 0
KMD1 101823Z 23005KT 11/01 A3038 RMK A01 T01140009  RH  048%=      5-min Rain = 0
KMD1 101824Z 23005KT 11/01 A3038 RMK A01 T01140008  RH  048%=      5-min Rain = 0
KMD1 101825Z 23007KT 11/01 A3038 RMK A01 T01140010  RH  049%=      5-min Rain = 0
KMD1 101826Z 25008KT 11/01 A3038 RMK A01 T01140011  RH  049%=      5-min Rain = 0
KMD1 101827Z 26006KT 11/01 A3038 RMK A01 T01140011  RH  049%=      5-min Rain = 0
KMD1 101828Z 25005KT 11/01 A3038 RMK A01 T01140010  RH  049%=      5-min Rain = 0
KMD1 101829Z 25005KT 11/01 A3038 RMK A01 T01130010  RH  049%=      5-min Rain = 0
KMD1 101830Z 25003KT 11/01 A3038 RMK A01 T01130007  RH  048%=      5-min Rain = 0
KMD1 101831Z 25001KT 11/00 A3037 RMK A01 T01130003  RH  047%=      5-min Rain = 0
KMD1 101832Z 24002KT 11/01 A3037 RMK A01 T01140006  RH  048%=      5-min Rain = 0
KMD1 101833Z 24006KT 12/01 A3037 RMK A01 T01160009  RH  048%=      5-min Rain = 0
KMD1 101834Z 25004KT 12/01 A3037 RMK A01 T01170010  RH  048%=      5-min Rain = 0
KMD1 101835Z 24005KT 12/01 A3037 RMK A01 T01170007  RH  047%=      5-min Rain = 0
KMD1 101836Z 24006KT 12/01 A3037 RMK A01 T01180008  RH  047%=      5-min Rain = 0
KMD1 101837Z 24005KT 12/00 A3037 RMK A01 T01190003  RH  045%=      5-min Rain = 0
KMD1 101838Z 24004KT 12/00 A3037 RMK A01 T01170004  RH  046%=      5-min Rain = 0
KMD1 101839Z 23006KT 12/01 A3037 RMK A01 T01180010  RH  047%=      5-min Rain = 0
KMD1 101840Z 24007KT 12/01 A3037 RMK A01 T01200010  RH  047%=      5-min Rain = 0
KMD1 101841Z 24006KT 12/01 A3037 RMK A01 T01190009  RH  047%=      5-min Rain = 0
KMD1 101842Z 24006KT 12/01 A3037 RMK A01 T01190011  RH  047%=      5-min Rain = 0
KMD1 101843Z 25005KT 12/01 A3037 RMK A01 T01190010  RH  047%=      5-min Rain = 0
KMD1 101844Z 24006KT 12/02 A3037 RMK A01 T01200015  RH  049%=      5-min Rain = 0
KMD1 101845Z 28003KT 12/01 A3037 RMK A01 T01210014  RH  048%=      5-min Rain = 0
KMD1 101846Z 25004KT 12/01 A3037 RMK A01 T01210008  RH  046%=      5-min Rain = 0
KMD1 101847Z 23003KT 12/00 A3037 RMK A01 T01200004  RH  045%=      5-min Rain = 0
KMD1 101848Z 24005KT 12/01 A3037 RMK A01 T01190007  RH  046%=      5-min Rain = 0
KMD1 101849Z 25003KT 12/00 A3037 RMK A01 T01180003  RH  045%=      5-min Rain = 0
KMD1 101850Z 27005KT 12/01 A3036 RMK A01 T01170008  RH  047%=      5-min Rain = 0
KMD1 101851Z 26005KT 12/01 A3036 RMK A01 T01190013  RH  048%=      5-min Rain = 0
KMD1 101852Z 26006KT 12/01 A3036 RMK A01 T01200010  RH  047%=      5-min Rain = 0
KMD1 101853Z 25006KT 12/02 A3036 RMK A01 T01210016  RH  048%=      5-min Rain = 0
KMD1 101854Z 26006KT 12/01 A3036 RMK A01 T01220012  RH  047%=      5-min Rain = 0
KMD1 101855Z 27007KT 12/01 A3036 RMK A01 T01210009  RH  046%=      5-min Rain = 0
KMD1 101856Z 26005KT 12/01 A3036 RMK A01 T01200011  RH  047%=      5-min Rain = 0
KMD1 101857Z 25004KT 12/01 A3036 RMK A01 T01200006  RH  046%=      5-min Rain = 0
KMD1 101858Z 25006KT 12/01 A3036 RMK A01 T01200009  RH  047%=      5-min Rain = 0
KMD1 101859Z 24006KT 12/01 A3036 RMK A01 T01220013  RH  047%=      5-min Rain = 0
KMD1 101900Z 23006KT 12/01 A3036 RMK A01 T01220008  RH  046%=      5-min Rain = 0
KMD1 101901Z 23006KT 12/01 A3036 RMK A01 T01220012  RH  047%=      5-min Rain = 0
KMD1 101902Z 24005KT 12/01 A3036 RMK A01 T01230011  RH  046%=      5-min Rain = 0
KMD1 101903Z 24005KT 12/01 A3036 RMK A01 T01230009  RH  046%=      5-min Rain = 0
KMD1 101904Z 26006KT 12/01 A3036 RMK A01 T01240013  RH  047%=      5-min Rain = 0
KMD1 101905Z 25006KT 12/01 A3035 RMK A01 T01240009  RH  045%=      5-min Rain = 0
KMD1 101906Z 25005KT 12/01 A3035 RMK A01 T01230008  RH  045%=      5-min Rain = 0
KMD1 101907Z 24005KT 12/01 A3035 RMK A01 T01230010  RH  046%=      5-min Rain = 0
KMD1 101908Z 23004KT 12/01 A3035 RMK A01 T01230005  RH  044%=      5-min Rain = 0
KMD1 101909Z 23002KT 12/01 A3035 RMK A01 T01230009  RH  046%=      5-min Rain = 0
KMD1 101910Z 25008KT 13/01 A3035 RMK A01 T01250011  RH  046%=      5-min Rain = 0
KMD1 101911Z 24007KT 13/01 A3035 RMK A01 T01250012  RH  046%=      5-min Rain = 0
KMD1 101912Z 24007KT 13/02 A3035 RMK A01 T01250015  RH  047%=      5-min Rain = 0
KMD1 101913Z 26008KT 13/02 A3035 RMK A01 T01270015  RH  047%=      5-min Rain = 0
KMD1 101914Z 27006KT 13/02 A3035 RMK A01 T01270023  RH  049%=      5-min Rain = 0
KMD1 101915Z 25006KT 13/02 A3035 RMK A01 T01270019  RH  048%=      5-min Rain = 0
KMD1 101916Z 24004KT 13/01 A3035 RMK A01 T01260006  RH  044%=      5-min Rain = 0
KMD1 101917Z 22005KT 12/01 A3035 RMK A01 T01240010  RH  046%=      5-min Rain = 0
KMD1 101918Z 21005KT 13/01 A3035 RMK A01 T01260012  RH  046%=      5-min Rain = 0
KMD1 101919Z 20006KT 13/01 A3035 RMK A01 T01280011  RH  045%=      5-min Rain = 0
KMD1 101920Z 22005KT 13/01 A3035 RMK A01 T01280010  RH  045%=      5-min Rain = 0
KMD1 101921Z 27008KT 13/02 A3035 RMK A01 T01290020  RH  048%=      5-min Rain = 0
KMD1 101922Z 26007KT 13/01 A3035 RMK A01 T01290014  RH  045%=      5-min Rain = 0
KMD1 101923Z 24007KT 13/02 A3035 RMK A01 T01270017  RH  047%=      5-min Rain = 0
KMD1 101924Z 25007KT 13/02 A3035 RMK A01 T01270016  RH  047%=      5-min Rain = 0
KMD1 101925Z 25005KT 13/02 A3035 RMK A01 T01270016  RH  047%=      5-min Rain = 0
KMD1 101926Z 25003KT 13/02 A3035 RMK A01 T01270020  RH  048%=      5-min Rain = 0
KMD1 101927Z 25006KT 13/02 A3035 RMK A01 T01300019  RH  047%=      5-min Rain = 0
KMD1 101928Z 26004KT 13/02 A3035 RMK A01 T01290017  RH  046%=      5-min Rain = 0
KMD1 101929Z 25002KT 13/02 A3035 RMK A01 T01290015  RH  046%=      5-min Rain = 0
KMD1 101930Z 24003KT 13/01 A3034 RMK A01 T01290013  RH  045%=      5-min Rain = 0
KMD1 101931Z 27006KT 13/02 A3034 RMK A01 T01290021  RH  048%=      5-min Rain = 0
KMD1 101932Z 26005KT 13/02 A3034 RMK A01 T01300017  RH  046%=      5-min Rain = 0
KMD1 101933Z 26004KT 13/02 A3034 RMK A01 T01300018  RH  046%=      5-min Rain = 0
KMD1 101934Z 24006KT 13/02 A3034 RMK A01 T01300018  RH  046%=      5-min Rain = 0
KMD1 101935Z 25005KT 13/02 A3034 RMK A01 T01300016  RH  046%=      5-min Rain = 0
KMD1 101936Z 25005KT 13/01 A3034 RMK A01 T01300013  RH  045%=      5-min Rain = 0
KMD1 101937Z 25004KT 13/01 A3034 RMK A01 T01280011  RH  045%=      5-min Rain = 0
KMD1 101938Z 22004KT 13/02 A3034 RMK A01 T01280016  RH  047%=      5-min Rain = 0
KMD1 101939Z 23003KT 13/01 A3034 RMK A01 T01290013  RH  045%=      5-min Rain = 0
KMD1 101940Z 24005KT 13/01 A3034 RMK A01 T01310014  RH  045%=      5-min Rain = 0
KMD1 101941Z 22007KT 13/02 A3034 RMK A01 T01310016  RH  045%=      5-min Rain = 0
KMD1 101942Z 24007KT 13/02 A3034 RMK A01 T01330022  RH  047%=      5-min Rain = 0
KMD1 101943Z 25008KT 13/02 A3034 RMK A01 T01340023  RH  047%=      5-min Rain = 0
KMD1 101944Z 26005KT 13/02 A3034 RMK A01 T01340019  RH  046%=      5-min Rain = 0
KMD1 101945Z 27006KT 13/02 A3034 RMK A01 T01320018  RH  046%=      5-min Rain = 0
KMD1 101946Z 26005KT 13/02 A3034 RMK A01 T01310015  RH  045%=      5-min Rain = 0
KMD1 101947Z 28005KT 13/01 A3034 RMK A01 T01300011  RH  044%=      5-min Rain = 0
KMD1 101948Z 28005KT 13/02 A3034 RMK A01 T01300018  RH  047%=      5-min Rain = 0
KMD1 101949Z 28007KT 13/02 A3034 RMK A01 T01310022  RH  048%=      5-min Rain = 0
KMD1 101950Z 28006KT 13/02 A3034 RMK A01 T01310016  RH  046%=      5-min Rain = 0
KMD1 101951Z 29009KT 13/02 A3033 RMK A01 T01300017  RH  046%=      5-min Rain = 0
KMD1 101952Z 28007KT 13/02 A3033 RMK A01 T01300018  RH  046%=      5-min Rain = 0
KMD1 101953Z 28007KT 13/02 A3033 RMK A01 T01300022  RH  048%=      5-min Rain = 0
KMD1 101954Z 29005KT 13/01 A3034 RMK A01 T01300013  RH  045%=      5-min Rain = 0
KMD1 101955Z 28004KT 13/02 A3034 RMK A01 T01300016  RH  046%=      5-min Rain = 0
KMD1 101956Z 27004KT 13/01 A3033 RMK A01 T01300012  RH  044%=      5-min Rain = 0
KMD1 101957Z 25003KT 13/01 A3033 RMK A01 T01300006  RH  043%=      5-min Rain = 0
KMD1 101958Z 25002KT 13/01 A3033 RMK A01 T01290011  RH  044%=      5-min Rain = 0
KMD1 101959Z 23003KT 13/01 A3033 RMK A01 T01310012  RH  044%=      5-min Rain = 0
KMD1 102000Z 25005KT 13/02 A3033 RMK A01 T01320015  RH  045%=      5-min Rain = 0
KMD1 102001Z 27003KT 13/01 A3033 RMK A01 T01330014  RH  044%=      5-min Rain = 0
KMD1 102002Z 27004KT 13/02 A3033 RMK A01 T01330018  RH  046%=      5-min Rain = 0
KMD1 102003Z 25007KT 13/02 A3033 RMK A01 T01340021  RH  046%=      5-min Rain = 0
KMD1 102004Z 24003KT 13/02 A3033 RMK A01 T01340015  RH  044%=      5-min Rain = 0
KMD1 102005Z 27004KT 13/01 A3033 RMK A01 T01340011  RH  043%=      5-min Rain = 0
KMD1 102006Z 24008KT 13/02 A3033 RMK A01 T01340018  RH  045%=      5-min Rain = 0
KMD1 102007Z 23007KT 13/02 A3033 RMK A01 T01340016  RH  045%=      5-min Rain = 0
KMD1 102008Z 23007KT 13/02 A3033 RMK A01 T01340018  RH  045%=      5-min Rain = 0
KMD1 102009Z 25008KT 13/02 A3033 RMK A01 T01330015  RH  045%=      5-min Rain = 0
KMD1 102010Z 26008KT 13/02 A3033 RMK A01 T01330018  RH  046%=      5-min Rain = 0
KMD1 102011Z 25008KT 13/02 A3033 RMK A01 T01330016  RH  045%=      5-min Rain = 0
KMD1 102012Z 26005KT 13/02 A3033 RMK A01 T01320016  RH  045%=      5-min Rain = 0
KMD1 102013Z 27005KT 13/02 A3033 RMK A01 T01320015  RH  045%=      5-min Rain = 0
KMD1 102014Z 27003KT 13/01 A3033 RMK A01 T01320011  RH  043%=      5-min Rain = 0
KMD1 102015Z 25001KT 13/01 A3033 RMK A01 T01320013  RH  044%=      5-min Rain = 0
KMD1 102016Z 23001KT 13/01 A3033 RMK A01 T01330013  RH  044%=      5-min Rain = 0
KMD1 102017Z 23001KT 14/02 A3033 RMK A01 T01350018  RH  045%=      5-min Rain = 0
KMD1 102018Z 24001KT 14/02 A3033 RMK A01 T01380020  RH  045%=      5-min Rain = 0
KMD1 102019Z 23002KT 14/02 A3033 RMK A01 T01400016  RH  043%=      5-min Rain = 0
KMD1 102020Z 23004KT 14/02 A3033 RMK A01 T01410018  RH  043%=      5-min Rain = 0
KMD1 102021Z 24006KT 14/02 A3033 RMK A01 T01420018  RH  043%=      5-min Rain = 0
KMD1 102022Z 26005KT 14/02 A3033 RMK A01 T01400017  RH  043%=      5-min Rain = 0
KMD1 102023Z 24005KT 14/02 A3033 RMK A01 T01380018  RH  044%=      5-min Rain = 0
KMD1 102024Z 23007KT 14/02 A3033 RMK A01 T01380020  RH  045%=      5-min Rain = 0
KMD1 102025Z 24006KT 14/02 A3033 RMK A01 T01380022  RH  045%=      5-min Rain = 0
KMD1 102026Z 24005KT 14/02 A3033 RMK A01 T01370017  RH  044%=      5-min Rain = 0
KMD1 102027Z 26002KT 14/02 A3033 RMK A01 T01360015  RH  044%=      5-min Rain = 0
KMD1 102028Z 22001KT 14/01 A3033 RMK A01 T01360014  RH  043%=      5-min Rain = 0
KMD1 102029Z 21003KT 14/02 A3033 RMK A01 T01360016  RH  044%=      5-min Rain = 0
KMD1 102030Z 22004KT 14/02 A3033 RMK A01 T01380015  RH  043%=      5-min Rain = 0
KMD1 102031Z 23003KT 14/01 A3032 RMK A01 T01390014  RH  043%=      5-min Rain = 0
KMD1 102032Z 26003KT 14/02 A3032 RMK A01 T01390016  RH  043%=      5-min Rain = 0
KMD1 102033Z 25006KT 14/02 A3032 RMK A01 T01400021  RH  045%=      5-min Rain = 0
KMD1 102034Z 26006KT 14/02 A3032 RMK A01 T01400018  RH  043%=      5-min Rain = 0
KMD1 102035Z 26004KT 14/02 A3032 RMK A01 T01390019  RH  044%=      5-min Rain = 0
KMD1 102036Z 29004KT 14/02 A3032 RMK A01 T01390023  RH  046%=      5-min Rain = 0
KMD1 102037Z 28006KT 14/02 A3032 RMK A01 T01400022  RH  045%=      5-min Rain = 0
KMD1 102038Z 29006KT 14/02 A3032 RMK A01 T01400024  RH  046%=      5-min Rain = 0
KMD1 102039Z 28004KT 14/02 A3032 RMK A01 T01390015  RH  043%=      5-min Rain = 0
KMD1 102040Z 29002KT 14/02 A3032 RMK A01 T01380019  RH  044%=      5-min Rain = 0
KMD1 102041Z 33003KT 14/02 A3032 RMK A01 T01380015  RH  043%=      5-min Rain = 0
KMD1 102042Z 33003KT 14/02 A3032 RMK A01 T01380015  RH  043%=      5-min Rain = 0
KMD1 102043Z 26003KT 14/02 A3032 RMK A01 T01380016  RH  043%=      5-min Rain = 0
KMD1 102044Z 27004KT 14/02 A3032 RMK A01 T01380018  RH  044%=      5-min Rain = 0
KMD1 102045Z 26005KT 14/02 A3032 RMK A01 T01390019  RH  044%=      5-min Rain = 0
KMD1 102046Z 27005KT 14/02 A3032 RMK A01 T01390018  RH  044%=      5-min Rain = 0
KMD1 102047Z 25003KT 14/01 A3032 RMK A01 T01390013  RH  042%=      5-min Rain = 0
KMD1 102048Z 24001KT 14/02 A3032 RMK A01 T01380015  RH  043%=      5-min Rain = 0
KMD1 102049Z 22001KT 14/02 A3032 RMK A01 T01400021  RH  045%=      5-min Rain = 0
KMD1 102050Z 24003KT 14/02 A3032 RMK A01 T01430022  RH  044%=      5-min Rain = 0
KMD1 102051Z 25002KT 14/02 A3032 RMK A01 T01430016  RH  042%=      5-min Rain = 0
KMD1 102052Z 25003KT 14/02 A3032 RMK A01 T01430019  RH  043%=      5-min Rain = 0
KMD1 102053Z 26006KT 14/02 A3032 RMK A01 T01420018  RH  043%=      5-min Rain = 0
KMD1 102054Z 26005KT 14/02 A3032 RMK A01 T01410018  RH  043%=      5-min Rain = 0
KMD1 102055Z 27003KT 14/02 A3032 RMK A01 T01400015  RH  043%=      5-min Rain = 0
KMD1 102056Z 23003KT 14/02 A3032 RMK A01 T01390022  RH  045%=      5-min Rain = 0
KMD1 102057Z 23004KT 14/02 A3032 RMK A01 T01410020  RH  044%=      5-min Rain = 0
KMD1 102058Z 21003KT 14/02 A3032 RMK A01 T01430022  RH  044%=      5-min Rain = 0
KMD1 102059Z 25003KT 14/02 A3032 RMK A01 T01430020  RH  043%=      5-min Rain = 0
KMD1 102100Z 26003KT 14/02 A3032 RMK A01 T01430020  RH  043%=      5-min Rain = 0
KMD1 102101Z 25002KT 14/02 A3032 RMK A01 T01430016  RH  042%=      5-min Rain = 0
KMD1 102102Z 24002KT 14/02 A3032 RMK A01 T01430019  RH  043%=      5-min Rain = 0
KMD1 102103Z 23002KT 14/02 A3032 RMK A01 T01430018  RH  043%=      5-min Rain = 0
KMD1 102104Z 24001KT 14/02 A3032 RMK A01 T01440022  RH  044%=      5-min Rain = 0
KMD1 102105Z 29005KT 15/03 A3032 RMK A01 T01450025  RH  044%=      5-min Rain = 0
KMD1 102106Z 27002KT 15/02 A3032 RMK A01 T01460020  RH  043%=      5-min Rain = 0
KMD1 102107Z 28002KT 15/02 A3032 RMK A01 T01450019  RH  042%=      5-min Rain = 0
KMD1 102108Z 30004KT 14/02 A3032 RMK A01 T01440021  RH  043%=      5-min Rain = 0
KMD1 102109Z 32006KT 15/02 A3032 RMK A01 T01450021  RH  043%=      5-min Rain = 0
KMD1 102110Z 32006KT 14/02 A3032 RMK A01 T01440021  RH  043%=      5-min Rain = 0
KMD1 102111Z 33005KT 14/02 A3032 RMK A01 T01420015  RH  042%=      5-min Rain = 0
KMD1 102112Z 34004KT 14/02 A3032 RMK A01 T01400015  RH  043%=      5-min Rain = 0
KMD1 102113Z 32002KT 14/02 A3032 RMK A01 T01390015  RH  043%=      5-min Rain = 0
KMD1 102114Z 33003KT 14/02 A3032 RMK A01 T01400016  RH  043%=      5-min Rain = 0
KMD1 102115Z 26002KT 14/02 A3032 RMK A01 T01400020  RH  044%=      5-min Rain = 0
KMD1 102116Z 24006KT 14/02 A3032 RMK A01 T01420021  RH  044%=      5-min Rain = 0
KMD1 102117Z 24004KT 14/02 A3032 RMK A01 T01430023  RH  044%=      5-min Rain = 0
KMD1 102118Z 25006KT 14/02 A3032 RMK A01 T01430021  RH  044%=      5-min Rain = 0
KMD1 102119Z 25004KT 14/02 A3032 RMK A01 T01430022  RH  044%=      5-min Rain = 0
KMD1 102120Z 26004KT 14/02 A3032 RMK A01 T01420017  RH  043%=      5-min Rain = 0
KMD1 102121Z 26003KT 14/02 A3032 RMK A01 T01410016  RH  043%=      5-min Rain = 0
KMD1 102122Z 28005KT 14/02 A3032 RMK A01 T01410020  RH  044%=      5-min Rain = 0
KMD1 102123Z 30005KT 14/03 A3032 RMK A01 T01420025  RH  045%=      5-min Rain = 0
KMD1 102124Z 29005KT 14/02 A3032 RMK A01 T01420020  RH  044%=      5-min Rain = 0
KMD1 102125Z 30003KT 14/02 A3032 RMK A01 T01420017  RH  043%=      5-min Rain = 0
KMD1 102126Z 29003KT 14/02 A3032 RMK A01 T01410016  RH  043%=      5-min Rain = 0
KMD1 102127Z 30003KT 14/02 A3032 RMK A01 T01410018  RH  043%=      5-min Rain = 0
KMD1 102128Z 30003KT 14/02 A3032 RMK A01 T01420016  RH  043%=      5-min Rain = 0
KMD1 102129Z 30003KT 14/02 A3032 RMK A01 T01420018  RH  043%=      5-min Rain = 0
KMD1 102130Z 29005KT 14/02 A3032 RMK A01 T01420020  RH  044%=      5-min Rain = 0
KMD1 102131Z 29003KT 14/02 A3032 RMK A01 T01420021  RH  044%=      5-min Rain = 0
KMD1 102132Z 28004KT 14/02 A3032 RMK A01 T01420022  RH  044%=      5-min Rain = 0
KMD1 102133Z 27004KT 14/02 A3032 RMK A01 T01420020  RH  044%=      5-min Rain = 0
KMD1 102134Z 23003KT 14/02 A3032 RMK A01 T01410016  RH  043%=      5-min Rain = 0
KMD1 102135Z 25003KT 14/02 A3032 RMK A01 T01410017  RH  043%=      5-min Rain = 0
KMD1 102136Z 26004KT 14/02 A3032 RMK A01 T01420021  RH  044%=      5-min Rain = 0
KMD1 102137Z 25003KT 14/02 A3032 RMK A01 T01420020  RH  044%=      5-min Rain = 0
KMD1 102138Z 25004KT 14/02 A3032 RMK A01 T01420019  RH  043%=      5-min Rain = 0
KMD1 102139Z 26004KT 14/02 A3032 RMK A01 T01430022  RH  044%=      5-min Rain = 0
KMD1 102140Z 27004KT 14/02 A3032 RMK A01 T01420024  RH  045%=      5-min Rain = 0
KMD1 102141Z 28003KT 14/02 A3032 RMK A01 T01420020  RH  044%=      5-min Rain = 0
KMD1 102142Z 27002KT 14/02 A3032 RMK A01 T01420021  RH  044%=      5-min Rain = 0
KMD1 102143Z 27001KT 14/02 A3032 RMK A01 T01420021  RH  044%=      5-min Rain = 0
KMD1 102144Z 25000KT 14/02 A3032 RMK A01 T01430018  RH  043%=      5-min Rain = 0
KMD1 102145Z 18001KT 15/02 A3032 RMK A01 T01450020  RH  043%=      5-min Rain = 0
KMD1 102146Z 23002KT 15/02 A3032 RMK A01 T01470021  RH  043%=      5-min Rain = 0
KMD1 102147Z 25003KT 15/03 A3032 RMK A01 T01480025  RH  043%=      5-min Rain = 0
KMD1 102148Z 24003KT 15/03 A3032 RMK A01 T01490025  RH  043%=      5-min Rain = 0
KMD1 102149Z 24003KT 15/02 A3032 RMK A01 T01480022  RH  043%=      5-min Rain = 0
KMD1 102150Z 24002KT 15/02 A3032 RMK A01 T01460020  RH  042%=      5-min Rain = 0
KMD1 102151Z 24002KT 15/02 A3032 RMK A01 T01450018  RH  042%=      5-min Rain = 0
KMD1 102152Z 22001KT 15/02 A3032 RMK A01 T01450018  RH  042%=      5-min Rain = 0
KMD1 102153Z 20000KT 15/02 A3032 RMK A01 T01450019  RH  043%=      5-min Rain = 0
KMD1 102154Z 19000KT 15/02 A3032 RMK A01 T01460018  RH  042%=      5-min Rain = 0
KMD1 102155Z 16000KT 15/02 A3032 RMK A01 T01470018  RH  042%=      5-min Rain = 0
KMD1 102156Z 16000KT 15/02 A3032 RMK A01 T01480019  RH  042%=      5-min Rain = 0
KMD1 102157Z 00000KT 15/02 A3032 RMK A01 T01490020  RH  042%=      5-min Rain = 0
KMD1 102158Z 00000KT 15/02 A3032 RMK A01 T01490019  RH  041%=      5-min Rain = 0
KMD1 102159Z 00000KT 15/02 A3032 RMK A01 T01500020  RH  041%=      5-min Rain = 0
KMD1 102200Z 00000KT 15/02 A3032 RMK A01 T01510024  RH  042%=      5-min Rain = 0
KMD1 102201Z 24000KT 15/03 A3032 RMK A01 T01530030  RH  044%=      5-min Rain = 0
KMD1 102202Z 17001KT 15/02 A3032 RMK A01 T01540023  RH  041%=      5-min Rain = 0
KMD1 102203Z 12001KT 16/03 A3032 RMK A01 T01550026  RH  042%=      5-min Rain = 0
KMD1 102204Z 06000KT 16/02 A3032 RMK A01 T01550022  RH  041%=      5-min Rain = 0
KMD1 102205Z 08001KT 15/02 A3032 RMK A01 T01530019  RH  041%=      5-min Rain = 0
KMD1 102206Z 02002KT 15/02 A3032 RMK A01 T01500022  RH  042%=      5-min Rain = 0
KMD1 102207Z 03001KT 15/02 A3032 RMK A01 T01490024  RH  043%=      5-min Rain = 0
KMD1 102208Z 03002KT 15/03 A3032 RMK A01 T01480028  RH  045%=      5-min Rain = 0
KMD1 102209Z 00000KT 15/03 A3032 RMK A01 T01480027  RH  044%=      5-min Rain = 0
KMD1 102210Z 28001KT 15/02 A3032 RMK A01 T01470018  RH  042%=      5-min Rain = 0
KMD1 102211Z 28002KT 15/02 A3032 RMK A01 T01470023  RH  043%=      5-min Rain = 0
KMD1 102212Z 25002KT 15/02 A3032 RMK A01 T01480023  RH  043%=      5-min Rain = 0
KMD1 102213Z 28001KT 15/03 A3032 RMK A01 T01470026  RH  044%=      5-min Rain = 0
KMD1 102214Z 30001KT 15/02 A3032 RMK A01 T01470021  RH  043%=      5-min Rain = 0
KMD1 102215Z 00000KT 15/02 A3032 RMK A01 T01470016  RH  041%=      5-min Rain = 0
KMD1 102216Z 00000KT 15/02 A3032 RMK A01 T01470015  RH  041%=      5-min Rain = 0
KMD1 102217Z 35000KT 15/02 A3032 RMK A01 T01470017  RH  041%=      5-min Rain = 0
KMD1 102218Z 34001KT 15/02 A3032 RMK A01 T01480020  RH  042%=      5-min Rain = 0
KMD1 102219Z 33000KT 15/02 A3032 RMK A01 T01480019  RH  042%=      5-min Rain = 0
KMD1 102220Z 00000KT 15/02 A3032 RMK A01 T01480018  RH  041%=      5-min Rain = 0
KMD1 102221Z 01002KT 15/02 A3032 RMK A01 T01490019  RH  041%=      5-min Rain = 0
KMD1 102222Z 01002KT 15/02 A3032 RMK A01 T01480021  RH  042%=      5-min Rain = 0
KMD1 102223Z 00002KT 15/02 A3032 RMK A01 T01460017  RH  042%=      5-min Rain = 0
KMD1 102224Z 02001KT 15/02 A3032 RMK A01 T01450018  RH  042%=      5-min Rain = 0
KMD1 102225Z 01001KT 14/02 A3032 RMK A01 T01440019  RH  043%=      5-min Rain = 0
KMD1 102226Z 03001KT 14/02 A3032 RMK A01 T01440022  RH  044%=      5-min Rain = 0
KMD1 102227Z 04002KT 14/02 A3032 RMK A01 T01440024  RH  044%=      5-min Rain = 0
KMD1 102228Z 02003KT 14/03 A3032 RMK A01 T01440026  RH  045%=      5-min Rain = 0
KMD1 102229Z 02003KT 14/02 A3032 RMK A01 T01440022  RH  044%=      5-min Rain = 0
KMD1 102230Z 02003KT 14/02 A3032 RMK A01 T01420020  RH  044%=      5-min Rain = 0
KMD1 102231Z 01002KT 14/02 A3032 RMK A01 T01420023  RH  044%=      5-min Rain = 0
KMD1 102232Z 03001KT 14/02 A3032 RMK A01 T01420019  RH  043%=      5-min Rain = 0
KMD1 102233Z 05001KT 14/02 A3032 RMK A01 T01420019  RH  043%=      5-min Rain = 0
KMD1 102234Z 05002KT 14/02 A3032 RMK A01 T01420019  RH  043%=      5-min Rain = 0
KMD1 102235Z 05002KT 14/02 A3032 RMK A01 T01420020  RH  044%=      5-min Rain = 0
KMD1 102236Z 03002KT 14/02 A3032 RMK A01 T01420019  RH  043%=      5-min Rain = 0
KMD1 102237Z 00003KT 14/02 A3032 RMK A01 T01420022  RH  044%=      5-min Rain = 0
KMD1 102238Z 34002KT 14/02 A3032 RMK A01 T01420022  RH  044%=      5-min Rain = 0
KMD1 102239Z 35001KT 14/02 A3032 RMK A01 T01420022  RH  044%=      5-min Rain = 0
KMD1 102240Z 35001KT 14/02 A3032 RMK A01 T01420020  RH  044%=      5-min Rain = 0
KMD1 102241Z 35001KT 14/02 A3032 RMK A01 T01410018  RH  043%=      5-min Rain = 0
KMD1 102242Z 33000KT 14/02 A3032 RMK A01 T01420019  RH  043%=      5-min Rain = 0
KMD1 102243Z 28001KT 14/02 A3032 RMK A01 T01430022  RH  044%=      5-min Rain = 0
KMD1 102244Z 30002KT 14/02 A3032 RMK A01 T01440023  RH  044%=      5-min Rain = 0
KMD1 102245Z 31002KT 14/02 A3032 RMK A01 T01440024  RH  044%=      5-min Rain = 0
KMD1 102246Z 30003KT 14/02 A3032 RMK A01 T01440023  RH  044%=      5-min Rain = 0
KMD1 102247Z 27003KT 14/02 A3032 RMK A01 T01430021  RH  044%=      5-min Rain = 0
KMD1 102248Z 22003KT 14/03 A3032 RMK A01 T01430026  RH  045%=      5-min Rain = 0
KMD1 102249Z 19004KT 14/03 A3032 RMK A01 T01420027  RH  046%=      5-min Rain = 0
KMD1 102250Z 19002KT 14/02 A3032 RMK A01 T01420024  RH  045%=      5-min Rain = 0
KMD1 102251Z 20002KT 14/02 A3032 RMK A01 T01410022  RH  044%=      5-min Rain = 0
KMD1 102252Z 20002KT 14/02 A3032 RMK A01 T01420022  RH  044%=      5-min Rain = 0
KMD1 102253Z 21002KT 14/02 A3033 RMK A01 T01410021  RH  044%=      5-min Rain = 0
KMD1 102254Z 20001KT 14/02 A3033 RMK A01 T01420023  RH  045%=      5-min Rain = 0
KMD1 102255Z 19002KT 14/02 A3033 RMK A01 T01420019  RH  043%=      5-min Rain = 0
KMD1 102256Z 19002KT 14/02 A3033 RMK A01 T01420022  RH  044%=      5-min Rain = 0
KMD1 102257Z 20002KT 14/02 A3033 RMK A01 T01420022  RH  044%=      5-min Rain = 0
KMD1 102258Z 20002KT 14/02 A3033 RMK A01 T01410019  RH  043%=      5-min Rain = 0
KMD1 102259Z 21002KT 14/02 A3033 RMK A01 T01410019  RH  044%=      5-min Rain = 0
KMD1 102300Z 21001KT 14/02 A3033 RMK A01 T01400017  RH  043%=      5-min Rain = 0
KMD1 102301Z 20002KT 14/02 A3033 RMK A01 T01400018  RH  044%=      5-min Rain = 0
KMD1 102302Z 21001KT 14/02 A3033 RMK A01 T01400020  RH  044%=      5-min Rain = 0
KMD1 102303Z 20000KT 14/02 A3033 RMK A01 T01400017  RH  043%=      5-min Rain = 0
KMD1 102304Z 00000KT 14/02 A3033 RMK A01 T01400017  RH  043%=      5-min Rain = 0
KMD1 102305Z 00000KT 14/02 A3033 RMK A01 T01410017  RH  043%=      5-min Rain = 0
KMD1 102306Z 00000KT 14/02 A3033 RMK A01 T01410016  RH  043%=      5-min Rain = 0
KMD1 102307Z 00000KT 14/02 A3033 RMK A01 T01410016  RH  043%=      5-min Rain = 0
KMD1 102308Z 17000KT 14/02 A3033 RMK A01 T01410017  RH  043%=      5-min Rain = 0
KMD1 102309Z 18001KT 14/02 A3033 RMK A01 T01410018  RH  043%=      5-min Rain = 0
KMD1 102310Z 16002KT 14/02 A3033 RMK A01 T01410019  RH  043%=      5-min Rain = 0
KMD1 102311Z 16002KT 14/02 A3033 RMK A01 T01410021  RH  044%=      5-min Rain = 0
KMD1 102312Z 16002KT 14/02 A3033 RMK A01 T01400023  RH  045%=      5-min Rain = 0
KMD1 102313Z 16002KT 14/02 A3033 RMK A01 T01380021  RH  045%=      5-min Rain = 0
KMD1 102314Z 18003KT 14/02 A3033 RMK A01 T01370022  RH  046%=      5-min Rain = 0
KMD1 102315Z 19002KT 14/02 A3033 RMK A01 T01350022  RH  046%=      5-min Rain = 0
KMD1 102316Z 19002KT 14/02 A3033 RMK A01 T01350018  RH  045%=      5-min Rain = 0
KMD1 102317Z 18002KT 14/02 A3033 RMK A01 T01350018  RH  045%=      5-min Rain = 0
KMD1 102318Z 19002KT 14/02 A3033 RMK A01 T01350020  RH  045%=      5-min Rain = 0
KMD1 102319Z 20001KT 14/02 A3033 RMK A01 T01350021  RH  046%=      5-min Rain = 0
KMD1 102320Z 20001KT 14/02 A3033 RMK A01 T01350019  RH  045%=      5-min Rain = 0
KMD1 102321Z 20001KT 14/02 A3033 RMK A01 T01350020  RH  046%=      5-min Rain = 0
KMD1 102322Z 19001KT 14/02 A3033 RMK A01 T01350022  RH  046%=      5-min Rain = 0
KMD1 102323Z 19001KT 13/02 A3033 RMK A01 T01340021  RH  046%=      5-min Rain = 0
KMD1 102324Z 19002KT 13/02 A3033 RMK A01 T01330020  RH  046%=      5-min Rain = 0
KMD1 102325Z 17002KT 13/02 A3033 RMK A01 T01330019  RH  046%=      5-min Rain = 0
KMD1 102326Z 17002KT 13/02 A3033 RMK A01 T01330019  RH  046%=      5-min Rain = 0
KMD1 102327Z 17002KT 13/02 A3033 RMK A01 T01330019  RH  046%=      5-min Rain = 0
KMD1 102328Z 17001KT 13/02 A3033 RMK A01 T01320019  RH  046%=      5-min Rain = 0
KMD1 102329Z 18001KT 13/02 A3034 RMK A01 T01320020  RH  047%=      5-min Rain = 0
KMD1 102330Z 18001KT 13/02 A3034 RMK A01 T01310023  RH  048%=      5-min Rain = 0
KMD1 102331Z 18001KT 13/02 A3034 RMK A01 T01290022  RH  048%=      5-min Rain = 0
KMD1 102332Z 17001KT 13/02 A3034 RMK A01 T01280020  RH  048%=      5-min Rain = 0
KMD1 102333Z 16001KT 13/02 A3034 RMK A01 T01270019  RH  048%=      5-min Rain = 0
KMD1 102334Z 17001KT 13/02 A3034 RMK A01 T01260018  RH  048%=      5-min Rain = 0
KMD1 102335Z 17002KT 13/02 A3034 RMK A01 T01260019  RH  048%=      5-min Rain = 0
KMD1 102336Z 17002KT 13/02 A3034 RMK A01 T01260020  RH  048%=      5-min Rain = 0
KMD1 102337Z 16001KT 13/02 A3034 RMK A01 T01250021  RH  049%=      5-min Rain = 0
KMD1 102338Z 16001KT 12/03 A3034 RMK A01 T01240028  RH  052%=      5-min Rain = 0
KMD1 102339Z 16001KT 12/03 A3034 RMK A01 T01210030  RH  053%=      5-min Rain = 0
KMD1 102340Z 16001KT 12/03 A3034 RMK A01 T01200027  RH  053%=      5-min Rain = 0
KMD1 102341Z 15001KT 12/03 A3034 RMK A01 T01180025  RH  053%=      5-min Rain = 0
KMD1 102342Z 15001KT 12/02 A3034 RMK A01 T01180024  RH  053%=      5-min Rain = 0
KMD1 102343Z 15001KT 12/02 A3034 RMK A01 T01170023  RH  052%=      5-min Rain = 0
KMD1 102344Z 14001KT 12/02 A3034 RMK A01 T01160022  RH  052%=      5-min Rain = 0
KMD1 102345Z 14001KT 12/02 A3034 RMK A01 T01160022  RH  052%=      5-min Rain = 0
KMD1 102346Z 13000KT 12/02 A3034 RMK A01 T01160022  RH  053%=      5-min Rain = 0
KMD1 102347Z 00000KT 12/02 A3034 RMK A01 T01160023  RH  053%=      5-min Rain = 0
KMD1 102348Z 00000KT 12/02 A3034 RMK A01 T01150023  RH  053%=      5-min Rain = 0
KMD1 102349Z 09000KT 12/02 A3034 RMK A01 T01150022  RH  053%=      5-min Rain = 0
KMD1 102350Z 08001KT 12/02 A3034 RMK A01 T01150023  RH  053%=      5-min Rain = 0
KMD1 102351Z 08000KT 11/03 A3034 RMK A01 T01130027  RH  055%=      5-min Rain = 0
KMD1 102352Z 05001KT 11/03 A3034 RMK A01 T01090027  RH  057%=      5-min Rain = 0
KMD1 102353Z 04001KT 11/03 A3034 RMK A01 T01060029  RH  059%=      5-min Rain = 0
KMD1 102354Z 04001KT 11/03 A3034 RMK A01 T01050029  RH  060%=      5-min Rain = 0
KMD1 102355Z 04001KT 10/03 A3034 RMK A01 T01040027  RH  059%=      5-min Rain = 0
KMD1 102356Z 04001KT 11/03 A3034 RMK A01 T01050026  RH  058%=      5-min Rain = 0
KMD1 102357Z 03001KT 11/03 A3034 RMK A01 T01060026  RH  058%=      5-min Rain = 0
KMD1 102358Z 04002KT 11/03 A3034 RMK A01 T01060025  RH  057%=      5-min Rain = 0
KMD1 102359Z 05001KT 11/02 A3034 RMK A01 T01060024  RH  057%=      5-min Rain = 0
KMD1 110000Z 05001KT 11/02 A3034 RMK A01 T01090024  RH  056%=      5-min Rain = 0
KMD1 110001Z 05001KT 11/03 A3034 RMK A01 T01120025  RH  055%=      5-min Rain = 0
KMD1 110002Z 03001KT 11/02 A3034 RMK A01 T01130024  RH  054%=      5-min Rain = 0
KMD1 110003Z 03001KT 11/02 A3034 RMK A01 T01130023  RH  054%=      5-min Rain = 0
KMD1 110004Z 02001KT 11/02 A3034 RMK A01 T01100022  RH  055%=      5-min Rain = 0
KMD1 110005Z 02001KT 11/02 A3034 RMK A01 T01080023  RH  056%=      5-min Rain = 0
KMD1 110006Z 01001KT 11/02 A3034 RMK A01 T01050024  RH  057%=      5-min Rain = 0
KMD1 110007Z 01001KT 10/02 A3034 RMK A01 T01040024  RH  057%=      5-min Rain = 0
KMD1 110008Z 02001KT 10/03 A3034 RMK A01 T01040025  RH  058%=      5-min Rain = 0
KMD1 110009Z 03001KT 10/03 A3034 RMK A01 T01030025  RH  059%=      5-min Rain = 0
KMD1 110010Z 03001KT 10/03 A3034 RMK A01 T01010027  RH  060%=      5-min Rain = 0
KMD1 110011Z 03001KT 10/03 A3034 RMK A01 T00990031  RH  063%=      5-min Rain = 0
KMD1 110012Z 03001KT 10/03 A3034 RMK A01 T00960030  RH  063%=      5-min Rain = 0
KMD1 110013Z 03001KT 10/03 A3034 RMK A01 T00950029  RH  063%=      5-min Rain = 0
KMD1 110014Z 03001KT 09/03 A3034 RMK A01 T00940028  RH  064%=      5-min Rain = 0
KMD1 110015Z 03001KT 09/03 A3034 RMK A01 T00930028  RH  064%=      5-min Rain = 0
KMD1 110016Z 04001KT 09/03 A3034 RMK A01 T00920027  RH  064%=      5-min Rain = 0
KMD1 110017Z 06001KT 09/03 A3034 RMK A01 T00900026  RH  064%=      5-min Rain = 0
KMD1 110018Z 07001KT 09/03 A3034 RMK A01 T00900027  RH  065%=      5-min Rain = 0
KMD1 110019Z 07001KT 09/03 A3034 RMK A01 T00880027  RH  065%=      5-min Rain = 0
KMD1 110020Z 07001KT 09/03 A3034 RMK A01 T00860028  RH  067%=      5-min Rain = 0
KMD1 110021Z 07001KT 09/03 A3034 RMK A01 T00850028  RH  067%=      5-min Rain = 0
KMD1 110022Z 07001KT 08/03 A3034 RMK A01 T00840027  RH  068%=      5-min Rain = 0
KMD1 110023Z 07001KT 08/03 A3034 RMK A01 T00830027  RH  068%=      5-min Rain = 0
KMD1 110024Z 07001KT 08/03 A3034 RMK A01 T00830026  RH  068%=      5-min Rain = 0
KMD1 110025Z 07001KT 08/03 A3035 RMK A01 T00830026  RH  067%=      5-min Rain = 0
KMD1 110026Z 07001KT 08/03 A3035 RMK A01 T00830025  RH  067%=      5-min Rain = 0
KMD1 110027Z 07001KT 08/03 A3035 RMK A01 T00830025  RH  067%=      5-min Rain = 0
KMD1 110028Z 07002KT 08/03 A3035 RMK A01 T00830025  RH  067%=      5-min Rain = 0
KMD1 110029Z 07002KT 08/03 A3035 RMK A01 T00820025  RH  067%=      5-min Rain = 0
KMD1 110030Z 07002KT 08/03 A3035 RMK A01 T00810025  RH  068%=      5-min Rain = 0
KMD1 110031Z 07002KT 08/03 A3035 RMK A01 T00790025  RH  069%=      5-min Rain = 0
KMD1 110032Z 07002KT 08/02 A3035 RMK A01 T00770024  RH  069%=      5-min Rain = 0
KMD1 110033Z 06002KT 08/02 A3035 RMK A01 T00750023  RH  069%=      5-min Rain = 0
KMD1 110034Z 04002KT 07/02 A3035 RMK A01 T00730023  RH  070%=      5-min Rain = 0
KMD1 110035Z 04003KT 07/02 A3035 RMK A01 T00710023  RH  072%=      5-min Rain = 0
KMD1 110036Z 03003KT 07/02 A3035 RMK A01 T00690024  RH  073%=      5-min Rain = 0
KMD1 110037Z 02003KT 07/03 A3035 RMK A01 T00680025  RH  074%=      5-min Rain = 0
KMD1 110038Z 02003KT 07/03 A3035 RMK A01 T00670026  RH  075%=      5-min Rain = 0
KMD1 110039Z 03003KT 07/03 A3035 RMK A01 T00670027  RH  076%=      5-min Rain = 0
KMD1 110040Z 01003KT 07/03 A3035 RMK A01 T00710027  RH  074%=      5-min Rain = 0
KMD1 110041Z 01004KT 07/03 A3035 RMK A01 T00710027  RH  073%=      5-min Rain = 0
KMD1 110042Z 02003KT 07/03 A3035 RMK A01 T00690026  RH  074%=      5-min Rain = 0
KMD1 110043Z 03003KT 07/03 A3035 RMK A01 T00690026  RH  074%=      5-min Rain = 0
KMD1 110044Z 03003KT 07/03 A3035 RMK A01 T00690026  RH  074%=      5-min Rain = 0
KMD1 110045Z 04003KT 07/03 A3035 RMK A01 T00700026  RH  073%=      5-min Rain = 0
KMD1 110046Z 05003KT 07/03 A3035 RMK A01 T00720025  RH  072%=      5-min Rain = 0
KMD1 110047Z 05002KT 07/02 A3035 RMK A01 T00720024  RH  072%=      5-min Rain = 0
KMD1 110048Z 06002KT 07/02 A3035 RMK A01 T00700024  RH  072%=      5-min Rain = 0
KMD1 110049Z 04002KT 07/03 A3035 RMK A01 T00690025  RH  073%=      5-min Rain = 0
KMD1 110050Z 05001KT 07/03 A3035 RMK A01 T00690026  RH  074%=      5-min Rain = 0
KMD1 110051Z 06001KT 07/03 A3035 RMK A01 T00680026  RH  075%=      5-min Rain = 0
KMD1 110052Z 05002KT 07/03 A3035 RMK A01 T00680026  RH  075%=      5-min Rain = 0
KMD1 110053Z 05001KT 07/02 A3035 RMK A01 T00660023  RH  074%=      5-min Rain = 0
KMD1 110054Z 04002KT 06/02 A3035 RMK A01 T00620021  RH  075%=      5-min Rain = 0
KMD1 110055Z 05002KT 06/02 A3035 RMK A01 T00600021  RH  076%=      5-min Rain = 0
KMD1 110056Z 04002KT 06/02 A3035 RMK A01 T00580021  RH  077%=      5-min Rain = 0
KMD1 110057Z 03002KT 06/02 A3035 RMK A01 T00570023  RH  079%=      5-min Rain = 0
KMD1 110058Z 05001KT 06/02 A3035 RMK A01 T00560024  RH  079%=      5-min Rain = 0
KMD1 110059Z 06001KT 06/03 A3035 RMK A01 T00560025  RH  080%=      5-min Rain = 0
KMD1 110100Z 06001KT 06/03 A3035 RMK A01 T00560025  RH  081%=      5-min Rain = 0
KMD1 110101Z 04002KT 06/03 A3035 RMK A01 T00550027  RH  082%=      5-min Rain = 0
KMD1 110102Z 04002KT 06/03 A3035 RMK A01 T00550029  RH  083%=      5-min Rain = 0
KMD1 110103Z 06003KT 06/03 A3035 RMK A01 T00560029  RH  082%=      5-min Rain = 0
KMD1 110104Z 06003KT 06/03 A3035 RMK A01 T00580027  RH  081%=      5-min Rain = 0
KMD1 110105Z 06003KT 06/03 A3035 RMK A01 T00620026  RH  078%=      5-min Rain = 0
KMD1 110106Z 07003KT 06/03 A3035 RMK A01 T00640025  RH  076%=      5-min Rain = 0
KMD1 110107Z 06003KT 06/03 A3035 RMK A01 T00640025  RH  076%=      5-min Rain = 0
KMD1 110108Z 06003KT 06/03 A3035 RMK A01 T00640025  RH  076%=      5-min Rain = 0
KMD1 110109Z 06003KT 07/02 A3035 RMK A01 T00660024  RH  075%=      5-min Rain = 0
KMD1 110110Z 06003KT 07/02 A3035 RMK A01 T00670024  RH  074%=      5-min Rain = 0
KMD1 110111Z 07004KT 07/02 A3035 RMK A01 T00650024  RH  075%=      5-min Rain = 0
KMD1 110112Z 06003KT 07/02 A3035 RMK A01 T00650024  RH  075%=      5-min Rain = 0
KMD1 110113Z 06003KT 07/02 A3035 RMK A01 T00670024  RH  074%=      5-min Rain = 0
KMD1 110114Z 06003KT 07/02 A3035 RMK A01 T00660023  RH  074%=      5-min Rain = 0
KMD1 110115Z 06003KT 07/02 A3035 RMK A01 T00660024  RH  074%=      5-min Rain = 0
KMD1 110116Z 06003KT 07/02 A3035 RMK A01 T00660023  RH  074%=      5-min Rain = 0
KMD1 110117Z 06003KT 07/02 A3035 RMK A01 T00650023  RH  075%=      5-min Rain = 0
KMD1 110118Z 06003KT 06/02 A3035 RMK A01 T00630023  RH  076%=      5-min Rain = 0
KMD1 110119Z 05003KT 06/02 A3035 RMK A01 T00620023  RH  076%=      5-min Rain = 0
KMD1 110120Z 06003KT 06/02 A3035 RMK A01 T00610022  RH  076%=      5-min Rain = 0
KMD1 110121Z 06003KT 06/02 A3035 RMK A01 T00600022  RH  076%=      5-min Rain = 0
KMD1 110122Z 05002KT 06/02 A3035 RMK A01 T00600021  RH  076%=      5-min Rain = 0
KMD1 110123Z 05002KT 06/02 A3035 RMK A01 T00590020  RH  076%=      5-min Rain = 0
KMD1 110124Z 05002KT 06/02 A3035 RMK A01 T00580020  RH  077%=      5-min Rain = 0
KMD1 110125Z 06002KT 06/02 A3035 RMK A01 T00560020  RH  077%=      5-min Rain = 0
KMD1 110126Z 05002KT 06/02 A3035 RMK A01 T00580022  RH  078%=      5-min Rain = 0
KMD1 110127Z 06002KT 06/02 A3035 RMK A01 T00590020  RH  076%=      5-min Rain = 0
KMD1 110128Z 05002KT 06/02 A3035 RMK A01 T00590020  RH  076%=      5-min Rain = 0
KMD1 110129Z 05002KT 06/02 A3035 RMK A01 T00580020  RH  076%=      5-min Rain = 0
KMD1 110130Z 06001KT 06/02 A3036 RMK A01 T00580020  RH  077%=      5-min Rain = 0
KMD1 110131Z 06001KT 06/02 A3036 RMK A01 T00560017  RH  076%=      5-min Rain = 0
KMD1 110132Z 04001KT 05/02 A3036 RMK A01 T00520016  RH  077%=      5-min Rain = 0
KMD1 110133Z 05001KT 05/02 A3036 RMK A01 T00500016  RH  079%=      5-min Rain = 0
KMD1 110134Z 04001KT 05/02 A3036 RMK A01 T00480017  RH  080%=      5-min Rain = 0
KMD1 110135Z 04001KT 05/02 A3036 RMK A01 T00470018  RH  081%=      5-min Rain = 0
KMD1 110136Z 04001KT 05/02 A3036 RMK A01 T00470018  RH  082%=      5-min Rain = 0
KMD1 110137Z 04001KT 05/02 A3036 RMK A01 T00460019  RH  082%=      5-min Rain = 0
KMD1 110138Z 03001KT 05/02 A3036 RMK A01 T00450019  RH  083%=      5-min Rain = 0
KMD1 110139Z 04001KT 05/02 A3036 RMK A01 T00450018  RH  083%=      5-min Rain = 0
KMD1 110140Z 03001KT 04/02 A3036 RMK A01 T00440018  RH  083%=      5-min Rain = 0
KMD1 110141Z 04001KT 04/02 A3036 RMK A01 T00440018  RH  084%=      5-min Rain = 0
KMD1 110142Z 03001KT 04/02 A3036 RMK A01 T00430018  RH  084%=      5-min Rain = 0
KMD1 110143Z 03001KT 04/02 A3036 RMK A01 T00420019  RH  085%=      5-min Rain = 0
KMD1 110144Z 02001KT 04/02 A3036 RMK A01 T00420018  RH  085%=      5-min Rain = 0
KMD1 110145Z 03001KT 04/02 A3036 RMK A01 T00410017  RH  085%=      5-min Rain = 0
KMD1 110146Z 03001KT 04/02 A3036 RMK A01 T00400017  RH  085%=      5-min Rain = 0
KMD1 110147Z 04001KT 04/02 A3036 RMK A01 T00390017  RH  085%=      5-min Rain = 0
KMD1 110148Z 04001KT 04/02 A3036 RMK A01 T00390017  RH  086%=      5-min Rain = 0
KMD1 110149Z 04001KT 04/02 A3036 RMK A01 T00390017  RH  086%=      5-min Rain = 0
KMD1 110150Z 03001KT 04/02 A3036 RMK A01 T00380017  RH  086%=      5-min Rain = 0
KMD1 110151Z 03001KT 04/02 A3036 RMK A01 T00380017  RH  086%=      5-min Rain = 0
KMD1 110152Z 03000KT 04/02 A3036 RMK A01 T00380018  RH  087%=      5-min Rain = 0
KMD1 110153Z 05001KT 04/02 A3036 RMK A01 T00380019  RH  087%=      5-min Rain = 0
KMD1 110154Z 05001KT 04/02 A3036 RMK A01 T00380018  RH  087%=      5-min Rain = 0
KMD1 110155Z 06001KT 04/02 A3036 RMK A01 T00380019  RH  087%=      5-min Rain = 0
KMD1 110156Z 05001KT 04/02 A3036 RMK A01 T00370018  RH  087%=      5-min Rain = 0
KMD1 110157Z 06001KT 04/02 A3036 RMK A01 T00370017  RH  087%=      5-min Rain = 0
KMD1 110158Z 05001KT 04/02 A3036 RMK A01 T00360016  RH  087%=      5-min Rain = 0
KMD1 110159Z 06001KT 03/01 A3036 RMK A01 T00340014  RH  087%=      5-min Rain = 0
KMD1 110200Z 05000KT 03/01 A3036 RMK A01 T00320013  RH  087%=      5-min Rain = 0
KMD1 110201Z 05000KT 03/01 A3036 RMK A01 T00320013  RH  088%=      5-min Rain = 0
KMD1 110202Z 00000KT 03/01 A3036 RMK A01 T00310014  RH  088%=      5-min Rain = 0
KMD1 110203Z 00000KT 03/02 A3036 RMK A01 T00310015  RH  089%=      5-min Rain = 0
KMD1 110204Z 00000KT 03/02 A3036 RMK A01 T00320016  RH  089%=      5-min Rain = 0
KMD1 110205Z 00000KT 03/02 A3036 RMK A01 T00320016  RH  089%=      5-min Rain = 0
KMD1 110206Z 00000KT 03/02 A3036 RMK A01 T00320017  RH  090%=      5-min Rain = 0
KMD1 110207Z 00000KT 03/02 A3036 RMK A01 T00330017  RH  090%=      5-min Rain = 0
KMD1 110208Z 00000KT 03/02 A3036 RMK A01 T00330018  RH  090%=      5-min Rain = 0
KMD1 110209Z 01001KT 03/02 A3036 RMK A01 T00340019  RH  090%=      5-min Rain = 0
KMD1 110210Z 01001KT 03/02 A3036 RMK A01 T00340019  RH  090%=      5-min Rain = 0
KMD1 110211Z 00001KT 04/02 A3036 RMK A01 T00350019  RH  090%=      5-min Rain = 0
KMD1 110212Z 00001KT 04/02 A3036 RMK A01 T00350019  RH  089%=      5-min Rain = 0
KMD1 110213Z 35001KT 04/02 A3036 RMK A01 T00350019  RH  089%=      5-min Rain = 0
KMD1 110214Z 35001KT 03/02 A3036 RMK A01 T00340018  RH  089%=      5-min Rain = 0
KMD1 110215Z 26000KT 03/02 A3036 RMK A01 T00340017  RH  089%=      5-min Rain = 0
KMD1 110216Z 24001KT 03/02 A3036 RMK A01 T00330017  RH  089%=      5-min Rain = 0
KMD1 110217Z 00000KT 03/02 A3036 RMK A01 T00330017  RH  089%=      5-min Rain = 0
KMD1 110218Z 00000KT 03/02 A3036 RMK A01 T00330017  RH  089%=      5-min Rain = 0
KMD1 110219Z 21000KT 03/02 A3036 RMK A01 T00330018  RH  090%=      5-min Rain = 0
KMD1 110220Z 21000KT 03/02 A3036 RMK A01 T00340019  RH  090%=      5-min Rain = 0
KMD1 110221Z 00000KT 03/02 A3036 RMK A01 T00340020  RH  091%=      5-min Rain = 0
KMD1 110222Z 00000KT 04/02 A3036 RMK A01 T00350021  RH  091%=      5-min Rain = 0
KMD1 110223Z 21000KT 04/02 A3036 RMK A01 T00350022  RH  091%=      5-min Rain = 0
KMD1 110224Z 21001KT 04/02 A3036 RMK A01 T00350022  RH  091%=      5-min Rain = 0
KMD1 110225Z 21000KT 04/02 A3036 RMK A01 T00350021  RH  091%=      5-min Rain = 0
KMD1 110226Z 21001KT 03/02 A3036 RMK A01 T00330019  RH  091%=      5-min Rain = 0
KMD1 110227Z 21000KT 03/02 A3036 RMK A01 T00320018  RH  090%=      5-min Rain = 0
KMD1 110228Z 00000KT 03/02 A3036 RMK A01 T00310017  RH  090%=      5-min Rain = 0
KMD1 110229Z 00000KT 03/02 A3036 RMK A01 T00300016  RH  090%=      5-min Rain = 0
KMD1 110230Z 00000KT 03/02 A3036 RMK A01 T00300016  RH  091%=      5-min Rain = 0
KMD1 110231Z 21000KT 03/02 A3036 RMK A01 T00300016  RH  091%=      5-min Rain = 0
KMD1 110232Z 21001KT 03/02 A3036 RMK A01 T00300016  RH  091%=      5-min Rain = 0
KMD1 110233Z 21000KT 03/02 A3036 RMK A01 T00300018  RH  091%=      5-min Rain = 0
KMD1 110234Z 00000KT 03/02 A3036 RMK A01 T00310019  RH  092%=      5-min Rain = 0
KMD1 110235Z 00000KT 03/02 A3036 RMK A01 T00320020  RH  092%=      5-min Rain = 0
KMD1 110236Z 00000KT 03/02 A3037 RMK A01 T00320020  RH  092%=      5-min Rain = 0
KMD1 110237Z 00000KT 03/02 A3037 RMK A01 T00330019  RH  091%=      5-min Rain = 0
KMD1 110238Z 00000KT 03/02 A3037 RMK A01 T00330018  RH  090%=      5-min Rain = 0
KMD1 110239Z 00000KT 03/02 A3037 RMK A01 T00320016  RH  089%=      5-min Rain = 0
KMD1 110240Z 00000KT 03/01 A3037 RMK A01 T00320014  RH  089%=      5-min Rain = 0
KMD1 110241Z 00000KT 03/01 A3037 RMK A01 T00310014  RH  088%=      5-min Rain = 0
KMD1 110242Z 00000KT 03/01 A3037 RMK A01 T00310013  RH  088%=      5-min Rain = 0
KMD1 110243Z 00000KT 03/01 A3037 RMK A01 T00300012  RH  088%=      5-min Rain = 0
KMD1 110244Z 00000KT 03/01 A3037 RMK A01 T00280011  RH  088%=      5-min Rain = 0
KMD1 110245Z 00000KT 03/01 A3037 RMK A01 T00270010  RH  088%=      5-min Rain = 0
KMD1 110246Z 00000KT 03/01 A3037 RMK A01 T00260010  RH  089%=      5-min Rain = 0
KMD1 110247Z 00000KT 03/01 A3037 RMK A01 T00260009  RH  089%=      5-min Rain = 0
KMD1 110248Z 00000KT 03/01 A3037 RMK A01 T00250009  RH  089%=      5-min Rain = 0
KMD1 110249Z 00000KT 03/01 A3037 RMK A01 T00250009  RH  089%=      5-min Rain = 0
KMD1 110250Z 00000KT 02/01 A3037 RMK A01 T00240008  RH  089%=      5-min Rain = 0
KMD1 110251Z 00000KT 02/01 A3037 RMK A01 T00240009  RH  090%=      5-min Rain = 0
KMD1 110252Z 00000KT 02/01 A3037 RMK A01 T00240010  RH  090%=      5-min Rain = 0
KMD1 110253Z 00000KT 03/01 A3037 RMK A01 T00250011  RH  090%=      5-min Rain = 0
KMD1 110254Z 00000KT 03/01 A3037 RMK A01 T00250011  RH  090%=      5-min Rain = 0
KMD1 110255Z 00000KT 02/01 A3037 RMK A01 T00240011  RH  091%=      5-min Rain = 0
KMD1 110256Z 00000KT 02/01 A3037 RMK A01 T00240010  RH  091%=      5-min Rain = 0
KMD1 110257Z 00000KT 02/01 A3037 RMK A01 T00240011  RH  091%=      5-min Rain = 0
KMD1 110258Z 00000KT 02/01 A3037 RMK A01 T00240012  RH  092%=      5-min Rain = 0
KMD1 110259Z 00000KT 02/01 A3037 RMK A01 T00240013  RH  092%=      5-min Rain = 0
KMD1 110300Z 00000KT 03/01 A3037 RMK A01 T00250013  RH  092%=      5-min Rain = 0
KMD1 110301Z 00000KT 03/01 A3037 RMK A01 T00250013  RH  092%=      5-min Rain = 0
KMD1 110302Z 00000KT 03/01 A3037 RMK A01 T00250013  RH  092%=      5-min Rain = 0
KMD1 110303Z 00000KT 02/01 A3037 RMK A01 T00240012  RH  092%=      5-min Rain = 0
KMD1 110304Z 00000KT 02/01 A3037 RMK A01 T00240012  RH  092%=      5-min Rain = 0
KMD1 110305Z 00000KT 02/01 A3037 RMK A01 T00230011  RH  092%=      5-min Rain = 0
KMD1 110306Z 00000KT 02/01 A3037 RMK A01 T00210009  RH  091%=      5-min Rain = 0
KMD1 110307Z 00000KT 02/01 A3037 RMK A01 T00200007  RH  091%=      5-min Rain = 0
KMD1 110308Z 00000KT 02/01 A3037 RMK A01 T00190005  RH  091%=      5-min Rain = 0
KMD1 110309Z 00000KT 02/01 A3037 RMK A01 T00180006  RH  091%=      5-min Rain = 0
KMD1 110310Z 00000KT 02/01 A3037 RMK A01 T00180006  RH  092%=      5-min Rain = 0
KMD1 110311Z 00000KT 02/01 A3037 RMK A01 T00180007  RH  092%=      5-min Rain = 0
KMD1 110312Z 00000KT 02/01 A3037 RMK A01 T00180007  RH  092%=      5-min Rain = 0
KMD1 110313Z 00000KT 02/01 A3037 RMK A01 T00180007  RH  092%=      5-min Rain = 0
KMD1 110314Z 21000KT 02/01 A3037 RMK A01 T00180007  RH  093%=      5-min Rain = 0
KMD1 110315Z 21001KT 02/01 A3037 RMK A01 T00190008  RH  093%=      5-min Rain = 0
KMD1 110316Z 21000KT 02/01 A3037 RMK A01 T00190010  RH  093%=      5-min Rain = 0
KMD1 110317Z 21001KT 02/01 A3037 RMK A01 T00200011  RH  094%=      5-min Rain = 0
KMD1 110318Z 21001KT 02/01 A3037 RMK A01 T00210011  RH  094%=      5-min Rain = 0
KMD1 110319Z 21000KT 02/01 A3037 RMK A01 T00200011  RH  094%=      5-min Rain = 0
KMD1 110320Z 21000KT 02/01 A3037 RMK A01 T00200012  RH  094%=      5-min Rain = 0
KMD1 110321Z 00000KT 02/01 A3037 RMK A01 T00200011  RH  094%=      5-min Rain = 0
KMD1 110322Z 00000KT 02/01 A3037 RMK A01 T00190010  RH  094%=      5-min Rain = 0
KMD1 110323Z 00000KT 02/01 A3037 RMK A01 T00180009  RH  094%=      5-min Rain = 0
KMD1 110324Z 00000KT 02/01 A3037 RMK A01 T00180009  RH  094%=      5-min Rain = 0
KMD1 110325Z 00000KT 02/01 A3037 RMK A01 T00180009  RH  094%=      5-min Rain = 0
KMD1 110326Z 00000KT 02/01 A3037 RMK A01 T00180009  RH  094%=      5-min Rain = 0
KMD1 110327Z 00000KT 02/01 A3037 RMK A01 T00180010  RH  094%=      5-min Rain = 0
KMD1 110328Z 00000KT 02/01 A3037 RMK A01 T00180011  RH  095%=      5-min Rain = 0
KMD1 110329Z 00000KT 02/01 A3037 RMK A01 T00180010  RH  095%=      5-min Rain = 0
KMD1 110330Z 00000KT 02/01 A3037 RMK A01 T00180010  RH  095%=      5-min Rain = 0
KMD1 110331Z 00000KT 02/01 A3037 RMK A01 T00180011  RH  095%=      5-min Rain = 0
KMD1 110332Z 23000KT 02/01 A3037 RMK A01 T00190011  RH  095%=      5-min Rain = 0
KMD1 110333Z 22000KT 02/01 A3037 RMK A01 T00190011  RH  095%=      5-min Rain = 0
KMD1 110334Z 21000KT 02/01 A3037 RMK A01 T00190011  RH  095%=      5-min Rain = 0
KMD1 110335Z 00000KT 02/01 A3037 RMK A01 T00190011  RH  095%=      5-min Rain = 0
KMD1 110336Z 00000KT 02/01 A3037 RMK A01 T00180010  RH  095%=      5-min Rain = 0
KMD1 110337Z 00000KT 02/01 A3037 RMK A01 T00180011  RH  095%=      5-min Rain = 0
KMD1 110338Z 00000KT 02/01 A3037 RMK A01 T00180011  RH  095%=      5-min Rain = 0
KMD1 110339Z 25000KT 02/01 A3037 RMK A01 T00180011  RH  095%=      5-min Rain = 0
KMD1 110340Z 00000KT 02/01 A3037 RMK A01 T00180011  RH  095%=      5-min Rain = 0
KMD1 110341Z 00000KT 02/01 A3037 RMK A01 T00180012  RH  095%=      5-min Rain = 0
KMD1 110342Z 00000KT 02/01 A3037 RMK A01 T00190012  RH  095%=      5-min Rain = 0
KMD1 110343Z 00000KT 02/01 A3037 RMK A01 T00180012  RH  095%=      5-min Rain = 0
KMD1 110344Z 24000KT 02/01 A3037 RMK A01 T00180011  RH  095%=      5-min Rain = 0
KMD1 110345Z 23000KT 02/01 A3037 RMK A01 T00180011  RH  095%=      5-min Rain = 0
KMD1 110346Z 24000KT 02/01 A3037 RMK A01 T00170010  RH  095%=      5-min Rain = 0
KMD1 110347Z 24001KT 02/01 A3037 RMK A01 T00170009  RH  095%=      5-min Rain = 0
KMD1 110348Z 25001KT 02/01 A3037 RMK A01 T00160009  RH  095%=      5-min Rain = 0
KMD1 110349Z 25000KT 02/01 A3037 RMK A01 T00170010  RH  095%=      5-min Rain = 0
KMD1 110350Z 24001KT 02/01 A3037 RMK A01 T00170011  RH  096%=      5-min Rain = 0
KMD1 110351Z 26001KT 02/01 A3037 RMK A01 T00180012  RH  096%=      5-min Rain = 0
KMD1 110352Z 26001KT 02/01 A3037 RMK A01 T00180012  RH  096%=      5-min Rain = 0
KMD1 110353Z 28001KT 02/01 A3037 RMK A01 T00180011  RH  095%=      5-min Rain = 0
KMD1 110354Z 27001KT 02/01 A3037 RMK A01 T00160009  RH  095%=      5-min Rain = 0
KMD1 110355Z 24001KT 02/01 A3037 RMK A01 T00150008  RH  095%=      5-min Rain = 0
KMD1 110356Z 24001KT 02/01 A3037 RMK A01 T00160009  RH  095%=      5-min Rain = 0
KMD1 110357Z 26001KT 02/01 A3037 RMK A01 T00160009  RH  095%=      5-min Rain = 0
KMD1 110358Z 24001KT 02/01 A3037 RMK A01 T00160009  RH  095%=      5-min Rain = 0
KMD1 110359Z 24002KT 02/01 A3037 RMK A01 T00160009  RH  095%=      5-min Rain = 0
KMD1 110400Z 24002KT 02/01 A3037 RMK A01 T00160009  RH  095%=      5-min Rain = 0
KMD1 110401Z 24002KT 02/01 A3037 RMK A01 T00160009  RH  095%=      5-min Rain = 0
KMD1 110402Z 24001KT 02/01 A3037 RMK A01 T00160008  RH  095%=      5-min Rain = 0
KMD1 110403Z 24001KT 02/01 A3037 RMK A01 T00160008  RH  095%=      5-min Rain = 0
KMD1 110404Z 24001KT 02/01 A3037 RMK A01 T00160008  RH  095%=      5-min Rain = 0
KMD1 110405Z 26000KT 02/01 A3037 RMK A01 T00160008  RH  095%=      5-min Rain = 0
KMD1 110406Z 27000KT 02/01 A3037 RMK A01 T00160008  RH  095%=      5-min Rain = 0
KMD1 110407Z 28000KT 02/01 A3037 RMK A01 T00160008  RH  095%=      5-min Rain = 0
KMD1 110408Z 29000KT 02/01 A3037 RMK A01 T00160008  RH  095%=      5-min Rain = 0
KMD1 110409Z 28001KT 02/01 A3037 RMK A01 T00160008  RH  095%=      5-min Rain = 0
KMD1 110410Z 28000KT 02/01 A3037 RMK A01 T00160007  RH  094%=      5-min Rain = 0
KMD1 110411Z 00000KT 01/01 A3037 RMK A01 T00140005  RH  094%=      5-min Rain = 0
KMD1 110412Z 24001KT 01/00 A3037 RMK A01 T00130004  RH  093%=      5-min Rain = 0
KMD1 110413Z 24001KT 01/00 A3037 RMK A01 T00120003  RH  093%=      5-min Rain = 0
KMD1 110414Z 23001KT 01/00 A3037 RMK A01 T00120004  RH  094%=      5-min Rain = 0
KMD1 110415Z 23002KT 01/01 A3037 RMK A01 T00130005  RH  094%=      5-min Rain = 0
KMD1 110416Z 24002KT 01/01 A3037 RMK A01 T00130005  RH  094%=      5-min Rain = 0
KMD1 110417Z 24001KT 01/01 A3037 RMK A01 T00140005  RH  094%=      5-min Rain = 0
KMD1 110418Z 23002KT 01/01 A3037 RMK A01 T00140006  RH  094%=      5-min Rain = 0
KMD1 110419Z 22001KT 01/01 A3037 RMK A01 T00140006  RH  094%=      5-min Rain = 0
KMD1 110420Z 21002KT 01/01 A3037 RMK A01 T00140005  RH  094%=      5-min Rain = 0
KMD1 110421Z 21001KT 01/01 A3037 RMK A01 T00130005  RH  094%=      5-min Rain = 0
KMD1 110422Z 21001KT 01/01 A3037 RMK A01 T00130005  RH  094%=      5-min Rain = 0
KMD1 110423Z 22001KT 01/00 A3037 RMK A01 T00130004  RH  094%=      5-min Rain = 0
KMD1 110424Z 23000KT 01/00 A3037 RMK A01 T00120003  RH  094%=      5-min Rain = 0
KMD1 110425Z 00000KT 01/00 A3037 RMK A01 T00120003  RH  094%=      5-min Rain = 0
KMD1 110426Z 24000KT 01/00 A3037 RMK A01 T00110002  RH  094%=      5-min Rain = 0
KMD1 110427Z 24001KT 01/00 A3037 RMK A01 T00110002  RH  094%=      5-min Rain = 0
KMD1 110428Z 25001KT 01/00 A3037 RMK A01 T00110002  RH  094%=      5-min Rain = 0
KMD1 110429Z 26000KT 01/00 A3037 RMK A01 T00100002  RH  094%=      5-min Rain = 0
KMD1 110430Z 28000KT 01/00 A3037 RMK A01 T00100001  RH  094%=      5-min Rain = 0
KMD1 110431Z 00000KT 01/M00 A3037 RMK A01 T00081001  RH  093%=      5-min Rain = 0
KMD1 110432Z 00000KT 01/M00 A3037 RMK A01 T00071003  RH  093%=      5-min Rain = 0
KMD1 110433Z 00000KT 01/M00 A3037 RMK A01 T00061004  RH  093%=      5-min Rain = 0
KMD1 110434Z 00000KT 00/M01 A3037 RMK A01 T00041006  RH  093%=      5-min Rain = 0
KMD1 110435Z 00000KT 00/M01 A3037 RMK A01 T00041005  RH  094%=      5-min Rain = 0
KMD1 110436Z 00000KT 00/M00 A3037 RMK A01 T00041004  RH  094%=      5-min Rain = 0
KMD1 110437Z 00000KT 01/M00 A3037 RMK A01 T00051003  RH  094%=      5-min Rain = 0
KMD1 110438Z 00000KT 01/M00 A3037 RMK A01 T00051003  RH  094%=      5-min Rain = 0
KMD1 110439Z 00000KT 01/M00 A3037 RMK A01 T00061002  RH  095%=      5-min Rain = 0
KMD1 110440Z 00000KT 01/M00 A3037 RMK A01 T00061002  RH  095%=      5-min Rain = 0
KMD1 110441Z 00000KT 01/M00 A3037 RMK A01 T00061002  RH  095%=      5-min Rain = 0
KMD1 110442Z 00000KT 01/M00 A3037 RMK A01 T00061002  RH  095%=      5-min Rain = 0
KMD1 110443Z 00000KT 01/M00 A3037 RMK A01 T00061002  RH  095%=      5-min Rain = 0
KMD1 110444Z 00000KT 01/M00 A3037 RMK A01 T00051003  RH  095%=      5-min Rain = 0
KMD1 110445Z 00000KT 01/M00 A3037 RMK A01 T00051003  RH  095%=      5-min Rain = 0
KMD1 110446Z 00000KT 00/M00 A3037 RMK A01 T00041004  RH  095%=      5-min Rain = 0
KMD1 110447Z 00000KT 00/M00 A3037 RMK A01 T00031004  RH  094%=      5-min Rain = 0
KMD1 110448Z 00000KT 00/M01 A3037 RMK A01 T00031005  RH  095%=      5-min Rain = 0
KMD1 110449Z 00000KT 00/M00 A3037 RMK A01 T00031004  RH  095%=      5-min Rain = 0
KMD1 110450Z 00000KT 00/M01 A3037 RMK A01 T00031005  RH  095%=      5-min Rain = 0
KMD1 110451Z 00000KT 00/M00 A3037 RMK A01 T00031004  RH  095%=      5-min Rain = 0
KMD1 110452Z 00000KT 00/M00 A3037 RMK A01 T00031004  RH  095%=      5-min Rain = 0
KMD1 110453Z 16000KT 00/M00 A3037 RMK A01 T00031004  RH  095%=      5-min Rain = 0
KMD1 110454Z 18000KT 00/M00 A3037 RMK A01 T00031004  RH  095%=      5-min Rain = 0
KMD1 110455Z 17000KT 00/M00 A3037 RMK A01 T00031004  RH  095%=      5-min Rain = 0
KMD1 110456Z 15000KT 00/M01 A3037 RMK A01 T00021005  RH  095%=      5-min Rain = 0
KMD1 110457Z 17000KT 00/M01 A3037 RMK A01 T00021005  RH  095%=      5-min Rain = 0
KMD1 110458Z 17000KT 00/M01 A3037 RMK A01 T00021005  RH  095%=      5-min Rain = 0
KMD1 110459Z 17001KT 00/M01 A3037 RMK A01 T00021005  RH  095%=      5-min Rain = 0
KMD1 110500Z 18001KT 00/M01 A3037 RMK A01 T00021005  RH  095%=      5-min Rain = 0
KMD1 110501Z 18001KT 00/M00 A3037 RMK A01 T00031004  RH  095%=      5-min Rain = 0
KMD1 110502Z 17001KT 00/M00 A3037 RMK A01 T00031003  RH  095%=      5-min Rain = 0
KMD1 110503Z 17001KT 00/M00 A3037 RMK A01 T00031003  RH  095%=      5-min Rain = 0
KMD1 110504Z 17001KT 00/M00 A3037 RMK A01 T00031004  RH  095%=      5-min Rain = 0
KMD1 110505Z 17000KT 00/M01 A3037 RMK A01 T00031005  RH  095%=      5-min Rain = 0
KMD1 110506Z 00000KT 00/M00 A3038 RMK A01 T00031004  RH  095%=      5-min Rain = 0
KMD1 110507Z 00000KT 00/M01 A3038 RMK A01 T00021005  RH  095%=      5-min Rain = 0
KMD1 110508Z 00000KT 00/M01 A3038 RMK A01 T00011006  RH  095%=      5-min Rain = 0
KMD1 110509Z 09000KT 00/M01 A3038 RMK A01 T00011007  RH  095%=      5-min Rain = 0
KMD1 110510Z 09000KT 00/01 A3038 RMK A01 T00-000-8  RH  095%=      5-min Rain = 0
KMD1 110511Z 00000KT M00/M01 A3038 RMK A01 T10011008  RH  094%=      5-min Rain = 0
KMD1 110512Z 00000KT M00/M01 A3037 RMK A01 T10011008  RH  095%=      5-min Rain = 0
KMD1 110513Z 28000KT M00/M01 A3037 RMK A01 T10011008  RH  095%=      5-min Rain = 0
KMD1 110514Z 28001KT 00/01 A3037 RMK A01 T00-000-7  RH  095%=      5-min Rain = 0
KMD1 110515Z 28001KT 00/M01 A3037 RMK A01 T00011006  RH  095%=      5-min Rain = 0
KMD1 110516Z 25001KT 00/M01 A3037 RMK A01 T00021005  RH  095%=      5-min Rain = 0
KMD1 110517Z 23000KT 00/M01 A3037 RMK A01 T00021006  RH  095%=      5-min Rain = 0
KMD1 110518Z 00000KT 00/01 A3037 RMK A01 T000000-7  RH  095%=      5-min Rain = 0
KMD1 110519Z 00000KT M00/M01 A3037 RMK A01 T10011010  RH  094%=      5-min Rain = 0
KMD1 110520Z 28001KT M00/M01 A3037 RMK A01 T10021010  RH  094%=      5-min Rain = 0
KMD1 110521Z 28001KT M00/M01 A3037 RMK A01 T10031010  RH  095%=      5-min Rain = 0
KMD1 110522Z 28001KT M00/M01 A3037 RMK A01 T10021008  RH  095%=      5-min Rain = 0
KMD1 110523Z 28001KT M00/M01 A3037 RMK A01 T10011008  RH  095%=      5-min Rain = 0
KMD1 110524Z 29001KT M00/M01 A3037 RMK A01 T10011007  RH  095%=      5-min Rain = 0
KMD1 110525Z 29000KT M00/M01 A3037 RMK A01 T10021009  RH  095%=      5-min Rain = 0
KMD1 110526Z 29000KT M00/M01 A3037 RMK A01 T10031011  RH  095%=      5-min Rain = 0
KMD1 110527Z 00000KT M00/M01 A3037 RMK A01 T10041011  RH  095%=      5-min Rain = 0
KMD1 110528Z 00000KT M00/M01 A3037 RMK A01 T10041011  RH  095%=      5-min Rain = 0
KMD1 110529Z 00000KT M00/M01 A3037 RMK A01 T10041011  RH  095%=      5-min Rain = 0
KMD1 110530Z 00000KT M00/M01 A3037 RMK A01 T10041011  RH  095%=      5-min Rain = 0
KMD1 110531Z 00000KT M00/M01 A3037 RMK A01 T10041011  RH  095%=      5-min Rain = 0
KMD1 110532Z 29000KT M00/M01 A3037 RMK A01 T10041010  RH  095%=      5-min Rain = 0
KMD1 110533Z 00000KT M00/M01 A3037 RMK A01 T10041010  RH  096%=      5-min Rain = 0
KMD1 110534Z 00000KT M00/M01 A3037 RMK A01 T10041010  RH  096%=      5-min Rain = 0
KMD1 110535Z 00000KT M00/M01 A3037 RMK A01 T10041010  RH  096%=      5-min Rain = 0
KMD1 110536Z 00000KT M00/M01 A3037 RMK A01 T10031009  RH  096%=      5-min Rain = 0
KMD1 110537Z 00000KT M00/M01 A3037 RMK A01 T10031009  RH  096%=      5-min Rain = 0
KMD1 110538Z 00000KT M00/M01 A3037 RMK A01 T10021008  RH  096%=      5-min Rain = 0
KMD1 110539Z 00000KT M00/M01 A3037 RMK A01 T10021008  RH  096%=      5-min Rain = 0
KMD1 110540Z 00000KT M00/M01 A3037 RMK A01 T10021007  RH  096%=      5-min Rain = 0
KMD1 110541Z 00000KT M00/M01 A3037 RMK A01 T10021008  RH  096%=      5-min Rain = 0
KMD1 110542Z 00000KT M00/M01 A3037 RMK A01 T10021008  RH  096%=      5-min Rain = 0
KMD1 110543Z 00000KT M00/M01 A3037 RMK A01 T10021008  RH  096%=      5-min Rain = 0
KMD1 110544Z 00000KT M00/M01 A3037 RMK A01 T10031009  RH  096%=      5-min Rain = 0
KMD1 110545Z 23000KT M00/M01 A3037 RMK A01 T10031009  RH  096%=      5-min Rain = 0
KMD1 110546Z 23000KT M00/M01 A3037 RMK A01 T10031009  RH  096%=      5-min Rain = 0
KMD1 110547Z 00000KT M00/M01 A3037 RMK A01 T10031009  RH  096%=      5-min Rain = 0
KMD1 110548Z 00000KT M00/M01 A3037 RMK A01 T10031009  RH  096%=      5-min Rain = 0
KMD1 110549Z 00000KT M00/M01 A3036 RMK A01 T10031008  RH  096%=      5-min Rain = 0
KMD1 110550Z 00000KT M00/M01 A3036 RMK A01 T10021008  RH  096%=      5-min Rain = 0
KMD1 110551Z 00000KT M00/M01 A3036 RMK A01 T10031008  RH  096%=      5-min Rain = 0
KMD1 110552Z 00000KT M00/M01 A3036 RMK A01 T10031009  RH  096%=      5-min Rain = 0
KMD1 110553Z 00000KT M00/M01 A3036 RMK A01 T10031009  RH  096%=      5-min Rain = 0
KMD1 110554Z 13000KT M00/M01 A3036 RMK A01 T10031009  RH  096%=      5-min Rain = 0
KMD1 110555Z 15000KT M00/M01 A3036 RMK A01 T10031009  RH  096%=      5-min Rain = 0
KMD1 110556Z 15000KT M00/M01 A3036 RMK A01 T10041011  RH  095%=      5-min Rain = 0
KMD1 110557Z 00000KT M01/M01 A3036 RMK A01 T10051012  RH  095%=      5-min Rain = 0
KMD1 110558Z 16000KT M00/M01 A3036 RMK A01 T10041011  RH  096%=      5-min Rain = 0
KMD1 110559Z 00000KT M00/M01 A3036 RMK A01 T10041009  RH  096%=      5-min Rain = 0

Page generated in 0.1212 seconds.